GFSCGP_500_spd_000.txt.gz
Wind_Speed
46 50 47 38 42 44 48 51 53 47 38 48 52 55 50 41 38 36 36 33 29 29 27 32 34 31 28 30 33 35 36 37 37 36 36 35 35 35 33 33 32 34 35 35
47 53 41 43 44 47 49 50 51 49 44 51 55 56 53 47 41 34 34 31 30 32 32 33 34 34 33 33 32 34 37 38 36 37 36 35 35 34 34 35 37 38 38 37
49 50 48 48 48 48 47 50 49 54 52 53 55 58 49 42 39 36 35 34 33 33 35 34 35 36 36 35 37 35 35 35 35 36 35 35 35 36 37 38 41 41 40 41
50 44 45 45 47 40 51 44 50 54 56 58 54 57 48 42 43 39 39 34 29 32 32 33 34 36 38 39 38 38 39 41 37 38 39 38 39 39 41 43 42 41 41 43
46 46 47 50 46 47 51 49 50 52 56 59 61 62 56 48 42 42 32 34 33 28 31 33 35 39 38 38 39 38 36 39 42 43 43 41 40 41 42 42 43 43 44 46
47 46 49 50 50 50 50 52 48 50 54 62 57 56 49 53 49 44 45 40 41 36 33 34 33 34 36 38 41 43 43 44 46 45 43 41 41 44 46 46 45 45 46 50
52 54 53 53 53 53 48 51 57 62 60 62 61 58 52 55 58 56 53 50 45 44 45 41 36 33 37 39 42 45 45 46 46 42 39 40 43 47 49 49 49 48 49 53
66 58 56 55 54 56 57 57 61 65 65 65 63 67 54 60 59 61 60 57 61 51 48 48 39 37 35 30 35 39 40 42 45 45 47 47 49 51 53 53 54 54 48 49
64 68 63 63 61 60 62 65 60 62 64 69 70 70 62 61 61 65 61 56 60 62 47 49 40 31 36 42 38 36 44 46 46 46 48 51 53 55 57 57 53 52 49 49
65 66 67 59 58 60 58 56 60 66 70 71 70 71 68 63 62 65 64 58 58 58 54 25 25 33 43 52 46 45 47 54 56 51 52 56 58 56 59 59 56 54 52 50
74 74 66 65 57 49 51 55 58 63 71 74 75 67 55 61 62 62 58 57 56 50 50 47 52 51 58 52 45 45 52 53 56 57 54 56 57 58 58 59 61 60 54 51
75 77 78 77 70 67 61 54 50 55 58 66 75 78 44 55 55 57 61 57 54 56 47 50 53 55 56 49 47 55 57 57 62 62 57 56 57 57 58 60 58 56 55 55
74 68 75 78 73 73 71 70 64 58 57 69 72 72 56 56 55 50 54 49 43 53 50 50 55 54 54 52 54 59 62 60 64 64 64 63 63 58 55 56 58 54 52 49
71 76 75 78 78 77 80 74 73 73 65 68 76 85 65 51 51 54 68 67 68 60 54 50 52 52 54 57 56 61 64 62 65 65 64 65 63 53 51 52 53 50 54 57
68 74 74 78 72 67 66 72 72 77 83 89 91 92 86 82 82 83 80 77 71 70 66 54 52 57 53 53 55 54 52 52 54 60 64 65 58 47 48 51 52 55 57 57
66 65 62 68 66 62 69 64 59 63 64 69 69 74 64 68 63 62 79 73 63 58 71 77 69 66 69 63 60 57 58 60 62 60 60 62 66 56 53 56 57 54 57 59
66 68 67 66 53 57 67 64 68 58 56 68 66 60 57 52 51 61 74 86 89 79 84 96 94 84 73 77 72 74 74 75 71 66 66 65 63 64 66 63 59 57 58 62
68 69 71 80 80 84 81 77 70 65 59 60 64 63 65 62 58 64 71 76 78 80 81 82 84 86 82 80 81 80 81 81 76 78 78 74 73 68 68 60 58 60 63 64
68 69 74 77 84 90 87 82 65 68 73 67 76 79 87 85 77 71 70 70 67 69 76 80 81 83 85 81 79 80 80 80 81 81 83 86 79 73 71 66 57 63 68 66
66 68 73 77 82 85 82 80 81 86 84 83 90 88 93 88 72 75 58 61 61 66 69 77 78 76 71 62 56 61 67 69 74 79 85 85 75 73 66 60 61 64 65 68
77 74 74 76 81 84 85 85 82 74 78 78 80 80 70 75 85 86 90 82 80 73 69 70 75 71 65 54 61 69 73 78 83 85 86 75 68 67 66 63 62 64 64 63
76 76 76 75 75 79 77 84 85 90 85 76 84 81 75 66 73 75 74 80 76 67 58 63 72 69 68 65 71 79 87 83 86 89 86 80 74 78 77 72 69 64 64 62
70 69 72 75 77 75 70 74 79 85 88 96 107 108 107 103 99 97 93 88 76 72 65 69 67 66 69 76 67 68 74 74 76 82 74 81 80 77 73 74 69 67 68 68
65 62 67 68 65 69 70 71 75 81 85 88 91 94 101 103 98 94 84 82 84 83 81 82 77 81 82 76 75 70 72 70 71 73 76 76 74 72 74 71 70 71 71 71
62 62 61 63 62 59 62 63 69 74 81 87 92 95 98 98 94 92 94 105 107 104 102 94 94 92 88 82 85 85 81 79 79 79 76 80 79 79 76 76 72 71 68 69
55 56 55 60 53 51 57 57 60 66 71 75 80 83 85 92 98 102 100 103 106 106 105 103 95 101 100 94 95 87 79 81 84 83 83 87 90 85 84 81 79 72 65 71

GFSCGP_500_spd_003.txt.gz
Wind_Speed
48 53 49 41 43 47 51 51 50 45 39 49 50 52 45 38 35 35 36 38 38 38 34 34 35 38 39 36 34 35 35 34 35 37 38 40 40 39 39 39 38 34 32 33
47 52 44 47 47 49 51 51 52 52 48 54 54 52 48 43 38 34 30 32 30 30 31 32 38 40 39 37 36 37 38 37 38 40 40 40 38 39 39 37 34 33 36 34
48 48 48 50 51 50 50 52 52 56 51 53 55 55 50 41 36 34 38 35 36 32 33 33 37 38 39 38 39 39 40 39 39 39 38 38 39 40 37 35 37 40 37 36
48 40 43 47 51 43 52 43 48 51 56 57 55 53 48 42 42 40 40 41 31 30 27 30 34 37 37 37 39 40 42 43 43 43 42 43 43 43 41 42 42 40 39 39
46 46 44 47 47 51 53 54 52 52 56 59 57 60 54 55 48 42 37 37 43 36 35 33 36 39 38 39 40 42 43 44 45 45 45 46 46 46 46 47 45 43 41 41
47 50 54 47 49 52 54 55 57 57 58 61 58 59 45 56 57 59 57 50 50 54 45 38 38 39 37 40 42 41 40 43 44 46 49 50 50 46 46 43 42 43 44 45
56 55 54 53 53 54 53 55 59 63 66 64 63 64 56 63 60 66 65 65 66 60 57 54 46 44 43 38 42 41 44 44 45 46 45 48 51 50 46 44 43 46 48 49
65 61 61 61 56 57 57 57 61 65 66 68 67 74 68 63 62 67 67 68 67 69 64 58 50 42 41 41 40 44 45 39 36 38 44 45 48 47 45 46 48 50 52 52
64 69 69 66 63 61 62 60 54 60 61 68 75 75 73 68 66 67 68 70 70 68 59 51 41 31 30 34 38 43 44 38 38 44 51 49 45 47 52 52 52 55 56 55
68 70 67 70 68 69 65 62 62 60 63 65 65 64 69 72 70 67 68 65 62 58 51 34 25 33 30 37 41 45 44 45 50 46 51 56 57 54 57 57 58 62 62 60
73 74 76 78 76 73 73 74 74 73 73 76 76 73 49 55 65 69 61 58 59 57 49 42 48 48 40 42 41 44 50 56 55 52 49 53 58 60 63 60 59 58 59 59
74 75 74 78 76 75 75 76 74 67 72 70 65 67 61 47 44 49 54 59 51 41 48 57 51 36 36 52 57 56 57 61 59 54 54 54 55 60 62 57 58 58 60 61
70 70 72 73 74 74 63 60 70 74 71 73 75 76 65 59 58 59 62 62 56 58 46 55 56 49 50 51 59 64 64 61 59 60 59 59 59 61 63 62 63 63 65 65
71 72 74 70 68 74 76 74 70 71 74 74 71 69 63 57 57 59 62 68 70 65 71 69 70 68 70 75 66 65 55 54 55 57 60 61 61 63 66 67 68 66 65 64
64 70 67 72 75 73 73 70 67 65 65 67 66 70 69 66 70 72 70 77 81 83 85 88 90 84 80 80 78 70 71 61 59 64 65 62 66 65 67 68 63 63 62 62
59 66 67 69 66 65 72 75 76 64 60 70 73 77 71 71 65 61 65 75 79 79 78 89 92 92 89 77 73 74 74 79 80 82 66 61 67 70 70 62 68 62 59 55
67 68 69 76 73 79 84 76 69 67 66 67 66 68 66 62 65 66 71 67 71 79 78 79 85 89 86 82 72 69 76 80 82 81 77 77 74 80 75 73 70 68 62 64
67 66 70 77 75 83 78 73 74 76 82 85 88 90 79 70 56 60 64 68 69 68 73 78 77 78 82 84 80 81 80 86 88 86 83 83 85 80 76 75 74 75 74 70
68 68 74 77 78 82 79 76 77 78 81 82 85 89 93 94 88 76 85 81 76 75 72 74 78 81 81 81 80 76 84 83 88 92 90 87 87 85 84 82 75 80 81 75
69 71 74 76 80 83 80 77 76 79 81 82 82 83 84 87 88 91 92 93 91 94 91 91 92 91 90 87 69 63 65 71 80 87 89 88 82 83 78 74 69 77 69 69
71 72 72 72 76 77 74 72 73 77 83 85 90 92 94 95 96 91 94 93 88 84 84 87 83 80 80 75 70 74 74 75 79 74 76 60 57 59 61 64 68 71 74 75
68 68 67 68 70 73 71 73 74 78 82 84 86 88 92 95 96 97 95 90 82 80 78 79 77 69 81 76 73 72 71 81 86 77 79 66 68 65 66 68 70 74 72 66
66 63 66 68 72 72 68 68 69 71 75 78 83 85 87 89 90 93 95 95 98 101 91 84 90 86 77 77 76 71 76 74 84 81 79 71 66 70 70 69 72 61 67 67
61 62 68 69 67 67 67 65 66 69 72 74 77 79 82 85 87 89 91 92 94 94 96 109 117 110 102 96 96 89 89 97 85 82 76 70 63 69 75 78 73 73 72 68
58 60 58 64 64 60 62 60 62 63 64 67 68 71 75 79 81 83 86 87 90 91 93 96 103 111 106 102 97 88 93 85 77 84 85 78 74 69 76 79 85 86 76 73
54 57 58 62 57 47 58 60 59 60 62 64 66 67 69 72 75 76 77 78 80 84 87 92 96 100 103 104 101 96 97 107 84 85 80 75 80 80 79 85 87 85 81 77

GFSCGP_500_spd_006.txt.gz
Wind_Speed
51 55 50 42 46 48 50 51 51 48 44 51 50 52 48 40 38 32 32 35 34 30 29 31 37 40 42 45 42 39 38 38 40 39 38 38 37 36 39 42 40 41 41 41
51 54 45 50 49 49 51 52 53 51 51 53 53 52 50 44 36 36 30 25 31 34 32 33 38 39 40 41 43 41 40 41 41 42 42 39 38 39 40 41 40 40 40 39
52 50 45 47 48 46 47 49 49 55 53 53 55 52 51 42 36 30 34 36 33 34 36 31 34 40 42 43 44 43 43 44 44 45 44 43 42 42 40 38 40 42 43 43
46 41 41 41 45 45 52 44 49 50 54 56 52 53 49 44 40 36 37 38 35 32 32 31 32 35 39 40 41 42 42 43 45 47 46 46 46 46 44 44 45 44 44 43
48 46 46 50 44 47 53 54 50 51 54 57 59 59 53 53 53 52 45 44 46 47 51 44 37 42 44 44 46 44 44 44 44 47 49 50 50 49 49 50 50 50 49 47
53 53 56 55 54 51 52 54 58 56 56 60 59 58 55 56 59 60 57 60 61 60 61 63 60 47 47 49 46 46 48 47 46 43 45 48 51 50 51 52 53 53 50 47
59 59 59 57 58 55 52 52 58 63 64 62 60 64 56 61 59 62 62 65 66 66 64 64 65 61 54 53 54 54 52 50 47 49 48 47 48 50 52 51 49 51 52 49
68 66 60 59 57 59 58 59 63 63 64 65 62 69 63 59 60 61 65 66 68 67 65 62 62 60 60 59 57 60 59 57 51 48 49 49 48 48 49 43 42 45 46 46
69 76 73 72 69 65 66 66 59 62 62 65 67 69 69 62 60 60 64 64 62 61 64 71 63 60 44 43 39 41 45 49 54 53 48 50 54 44 42 46 47 49 51 48
76 78 77 77 76 76 72 69 69 68 68 72 75 73 72 62 60 63 63 61 60 58 60 63 64 59 61 56 46 47 49 48 51 52 53 51 48 46 46 49 53 54 55 56
72 74 79 82 82 75 75 75 74 70 66 72 76 75 67 65 59 63 62 63 65 59 54 53 53 55 61 56 51 51 50 47 54 58 62 63 62 58 55 56 59 63 65 66
70 73 76 73 72 71 72 71 69 70 76 73 72 70 62 64 64 64 67 68 67 68 62 62 63 58 58 62 57 57 48 53 59 61 62 68 67 57 63 66 65 67 68 67
68 65 70 70 74 75 74 70 71 68 64 65 66 66 57 58 66 72 72 74 73 73 73 74 75 72 63 63 63 67 68 70 67 65 70 67 66 66 68 70 72 71 70 67
63 58 68 72 72 69 71 70 68 68 71 71 74 77 72 77 76 65 64 67 70 72 73 74 82 81 69 69 62 66 67 71 64 62 64 61 63 73 74 78 76 74 76 72
64 70 68 68 70 72 71 70 67 70 73 78 78 83 77 74 66 67 69 68 67 67 69 73 76 80 85 85 81 72 74 81 76 76 79 78 71 70 71 68 71 65 65 74
66 69 69 69 67 68 72 69 66 69 71 72 73 75 75 78 80 72 73 72 66 72 79 75 77 84 89 88 93 91 88 86 87 94 94 90 82 76 76 77 79 80 77 73
70 68 70 76 70 73 78 72 72 75 72 76 80 79 79 78 77 75 75 80 80 80 71 71 76 76 80 81 90 96 93 88 87 87 87 84 80 79 80 80 81 83 84 81
73 71 74 78 75 82 79 75 78 79 79 80 81 83 83 84 83 81 78 81 86 90 93 85 82 78 81 82 86 81 81 90 93 85 79 80 79 79 87 87 87 87 85 83
75 74 79 81 81 84 79 77 79 80 83 84 84 85 85 84 83 82 84 84 84 85 86 88 93 90 85 78 78 80 84 91 85 84 90 82 85 83 84 88 90 95 96 92
76 76 78 80 81 84 82 81 82 83 85 83 84 84 84 85 85 83 85 87 87 88 90 90 90 92 95 97 99 97 96 98 87 96 94 87 88 89 89 91 93 83 87 96
74 74 74 75 77 79 78 75 75 76 77 79 80 81 83 84 86 86 85 88 89 89 90 92 94 96 98 98 96 95 102 106 96 94 94 92 95 95 92 89 76 73 71 68
70 70 70 71 73 75 72 72 72 72 74 74 77 80 82 85 87 87 87 86 88 87 87 88 90 90 93 96 100 103 104 97 99 95 90 96 88 84 87 85 74 73 70 68
63 60 63 65 66 64 64 65 66 69 72 73 76 78 81 83 83 84 85 85 86 88 89 89 91 89 87 90 92 94 96 102 96 95 89 89 85 76 70 73 68 66 71 66
55 55 60 60 58 61 62 63 65 67 70 72 74 75 77 79 80 82 83 84 85 86 88 88 88 88 88 88 90 91 94 97 103 100 93 92 85 73 69 66 71 69 72 72
52 54 54 59 58 59 60 62 65 66 66 67 69 70 71 73 74 76 78 78 79 80 81 80 81 83 84 86 88 89 92 94 96 100 107 106 105 95 88 85 79 77 80 80
46 49 55 57 55 57 62 61 62 61 62 63 63 62 64 68 73 75 76 76 76 76 76 76 76 79 79 79 80 82 85 89 93 95 96 99 107 114 114 103 100 90 81 80

GFSCGP_500_spd_009.txt.gz
Wind_Speed
47 52 48 44 47 50 51 53 55 46 43 52 47 50 47 40 38 35 34 33 35 36 24 29 32 34 37 39 37 36 36 38 38 39 38 38 38 41 39 37 38 38 40 41
49 53 46 49 51 52 51 54 53 52 48 51 51 51 48 47 39 36 35 28 32 32 31 33 32 34 37 39 38 38 36 35 37 40 42 42 41 40 41 39 39 41 41 42
51 51 48 51 50 50 50 52 51 55 51 51 55 58 54 47 42 34 37 39 38 38 35 30 28 27 25 29 33 34 34 33 34 37 41 45 46 45 44 42 45 47 47 45
46 39 43 45 47 45 50 46 51 52 53 56 54 56 54 55 49 45 45 44 41 33 33 36 37 37 33 40 44 44 41 41 38 37 40 41 45 48 49 49 49 50 48 47
51 49 48 51 49 54 54 55 54 56 57 59 62 60 59 58 60 53 50 48 46 46 49 48 46 48 46 44 46 47 48 48 44 41 41 42 42 47 51 52 54 54 54 51
51 52 53 50 52 54 58 59 61 63 64 64 60 61 59 61 62 60 47 23 43 53 53 56 58 58 57 54 50 48 52 51 50 46 44 45 45 45 47 53 58 60 59 58
55 53 55 50 53 52 52 55 60 63 63 65 66 66 66 64 61 63 59 54 53 54 57 60 62 63 60 57 55 53 52 55 58 58 53 48 48 49 50 52 55 59 58 58
62 65 58 59 58 60 61 61 62 64 66 67 66 71 65 68 67 60 61 63 62 62 64 65 64 61 62 63 63 58 55 54 57 61 62 64 58 53 53 55 56 60 63 60
67 70 65 62 63 62 65 66 61 67 68 69 73 73 67 64 67 70 69 66 65 67 67 64 63 65 67 66 63 63 59 51 47 51 54 57 62 59 57 59 62 64 63 61
64 70 74 73 68 69 64 61 64 64 65 69 73 73 72 65 66 69 73 75 75 73 72 72 72 70 71 69 67 59 57 52 51 53 58 63 61 60 63 63 67 66 66 67
61 67 72 71 74 67 67 67 67 67 69 68 65 72 65 63 65 67 68 70 71 71 70 68 66 65 65 66 67 61 56 50 55 57 61 63 63 65 57 61 66 68 62 60
64 64 68 69 71 70 70 67 64 64 56 63 68 65 54 58 68 70 70 68 70 69 69 69 68 66 66 68 69 65 61 59 62 62 62 65 58 57 58 63 68 67 61 60
59 61 66 67 65 67 66 60 43 44 58 72 67 63 61 65 57 56 66 68 70 70 71 69 69 74 74 75 72 74 72 71 67 70 70 68 66 61 60 62 65 69 68 69
66 68 68 67 67 68 68 61 62 74 76 71 74 76 73 69 62 64 63 60 63 68 73 77 80 83 77 74 76 74 75 76 71 78 75 74 71 69 63 61 73 71 66 70
67 69 68 67 68 66 73 72 68 71 75 82 79 79 73 72 73 73 74 76 77 78 81 82 82 80 77 77 76 78 80 82 75 84 81 82 76 75 74 70 70 72 74 76
69 73 73 75 71 75 78 74 73 73 74 75 75 76 74 73 72 74 77 79 75 74 75 77 77 80 84 82 80 83 84 83 83 83 87 90 88 87 88 81 84 83 80 78
73 75 76 81 75 79 83 75 75 75 74 75 77 75 75 76 76 78 78 80 80 80 81 82 85 86 83 79 83 87 86 83 89 85 87 92 95 98 103 100 99 93 76 76
77 78 80 83 80 87 84 79 79 79 80 80 81 83 83 83 84 84 84 85 85 86 87 87 88 88 86 85 87 89 95 97 90 90 88 90 91 93 91 94 80 82 78 75
77 77 80 80 82 85 85 78 77 79 80 80 81 83 83 84 85 83 86 87 86 87 87 87 87 86 85 86 86 91 96 101 104 103 97 94 97 93 87 90 85 80 77 79
71 70 70 74 78 81 81 78 78 78 80 77 79 79 79 82 85 82 83 83 84 84 83 82 82 83 83 85 88 90 91 92 97 102 103 102 99 103 97 87 86 83 83 84
64 65 65 64 65 68 66 67 68 69 72 73 74 75 77 78 79 77 77 78 78 79 80 82 84 86 86 86 87 86 87 88 92 96 98 101 103 111 111 107 103 93 90 91
56 57 59 59 61 63 60 61 63 61 62 66 68 70 73 74 75 76 77 77 79 81 82 84 86 86 85 86 89 87 86 88 89 90 92 96 99 105 109 108 103 102 103 99
53 53 56 56 55 53 55 57 57 60 64 64 66 66 69 72 73 75 77 78 79 81 83 85 86 87 86 86 89 92 90 92 93 93 93 94 94 96 99 103 101 102 102 103
48 47 51 53 48 51 54 55 57 59 61 61 62 64 66 70 72 75 76 77 79 80 81 82 83 83 83 82 84 86 87 88 89 90 91 93 95 95 96 96 96 96 96 97
44 46 48 52 50 51 51 53 54 56 58 61 63 65 66 68 69 72 73 73 74 77 79 81 81 81 80 79 79 79 80 81 81 82 81 83 85 89 92 94 93 93 90 89
42 47 52 54 50 52 55 53 56 60 61 61 61 62 63 64 65 66 67 70 74 74 74 73 73 75 74 72 70 70 70 71 71 71 71 73 75 77 80 84 86 87 88 86

GFSCGP_500_spd_015.txt.gz
Wind_Speed
44 48 50 45 49 48 49 53 53 50 52 52 48 52 49 50 39 36 35 34 36 39 38 39 41 41 39 37 36 37 34 34 35 37 39 41 41 40 40 41 40 39 39 40
49 53 54 50 47 50 50 55 55 55 56 58 55 53 48 50 42 38 36 38 42 40 39 40 38 38 40 38 36 35 38 41 39 36 38 39 39 41 42 41 41 40 42 42
54 54 53 49 50 51 54 55 57 59 58 57 61 57 54 52 48 44 44 44 42 43 43 42 42 45 46 44 44 41 39 40 42 37 32 34 35 36 38 38 41 42 46 48
50 46 47 50 49 52 52 49 53 55 57 60 63 65 59 58 56 58 54 51 52 49 49 50 49 44 46 47 44 42 43 42 42 43 44 44 42 42 43 44 43 43 45 48
44 44 44 46 49 50 53 55 54 56 59 61 60 64 62 58 59 58 57 55 51 49 39 38 40 42 43 48 47 45 47 47 47 51 52 49 50 49 47 47 48 49 49 49
43 46 48 49 50 51 53 53 55 55 56 59 59 58 61 60 60 62 65 61 46 32 32 39 36 38 40 43 44 50 57 60 57 59 58 57 56 54 52 52 53 53 54 54
48 47 49 49 50 50 50 53 57 60 60 63 57 64 65 64 64 64 61 62 59 57 55 55 54 51 50 50 54 60 65 65 60 58 61 62 63 64 59 56 56 57 58 60
51 49 52 57 54 55 55 57 59 63 64 66 64 70 68 68 67 67 69 69 68 67 66 64 64 64 64 64 68 70 72 73 72 70 71 71 70 67 67 68 66 63 64 66
54 55 58 57 56 56 58 58 58 62 62 65 70 69 66 65 67 67 69 70 72 74 75 72 73 74 71 67 68 68 69 69 72 72 69 69 71 73 73 74 73 73 70 69
53 56 54 55 55 56 56 56 56 50 55 63 65 70 70 60 63 64 64 68 67 68 69 72 73 70 66 64 64 66 67 69 69 70 69 68 65 65 68 72 72 71 74 74
55 56 55 57 56 55 57 57 58 59 62 65 64 66 65 62 58 65 70 66 65 66 66 69 74 76 66 64 63 62 65 65 68 68 68 67 68 69 69 74 73 74 75 76
53 57 56 55 54 57 59 58 56 56 58 61 61 64 55 61 68 72 72 71 65 65 69 74 74 68 65 65 68 69 71 69 70 74 73 70 70 72 74 72 71 73 77 77
55 58 60 60 58 59 59 59 59 59 63 67 70 70 65 66 57 58 58 62 58 63 70 71 68 68 69 68 74 78 74 76 75 80 80 77 75 75 80 79 79 73 73 75
60 61 61 62 61 60 62 60 61 62 65 68 69 70 63 63 63 67 52 56 67 75 77 76 70 73 70 83 83 85 86 86 84 80 86 88 87 85 85 84 83 83 78 77
59 61 60 62 62 62 64 64 63 66 67 72 73 75 70 70 78 80 84 87 87 82 82 84 93 98 100 99 95 95 94 90 87 88 89 91 90 89 89 92 90 88 85 86
61 65 65 68 65 66 70 72 73 74 75 78 80 83 80 84 85 87 89 89 91 91 92 95 99 101 104 103 102 100 97 95 94 93 93 94 93 92 92 92 93 93 94 93
64 66 68 74 69 72 80 75 78 80 81 82 85 85 85 86 88 90 91 90 91 91 91 90 91 91 93 94 96 98 99 99 98 99 100 100 99 99 98 98 98 97 97 96
67 66 70 77 74 81 78 79 81 83 84 81 77 77 74 74 75 78 77 78 80 78 79 80 81 82 84 87 91 94 97 99 100 102 103 103 104 105 106 107 107 107 107 105
70 70 74 77 79 83 81 77 77 73 74 67 68 66 66 66 65 61 62 65 63 65 67 69 72 74 75 77 80 82 85 89 93 95 95 96 97 99 101 104 107 109 112 112
72 73 75 80 81 81 77 72 69 59 66 60 58 59 59 60 61 56 57 59 59 60 62 64 66 66 68 71 73 75 78 81 84 87 89 90 91 93 95 97 98 100 103 106
72 73 75 77 74 73 69 66 60 58 55 54 54 54 55 55 54 54 52 55 57 58 58 61 63 65 67 71 72 73 75 78 81 83 85 87 89 91 92 92 93 94 95 96
73 72 73 68 65 65 62 58 53 50 51 52 52 52 53 53 53 55 56 56 57 59 61 63 64 66 69 73 75 77 78 81 82 83 84 87 89 91 92 94 93 95 96 97
66 63 64 63 60 55 54 51 49 50 50 48 51 51 53 53 54 56 58 58 58 61 63 66 68 69 70 72 74 76 77 79 80 80 80 80 81 82 84 85 86 88 89 92
59 58 60 55 52 48 50 48 48 48 50 49 52 52 54 56 56 57 58 60 61 62 64 65 66 67 66 67 69 72 74 76 75 71 67 64 64 64 66 66 66 65 66 70
51 54 50 55 50 49 47 48 48 49 50 51 52 54 56 57 57 58 59 59 60 61 62 61 62 63 62 65 66 67 68 66 63 57 49 49 56 60 62 62 62 63 63 67
42 46 50 51 46 51 51 48 48 51 52 53 53 55 56 57 58 59 58 58 57 56 57 58 60 62 61 58 57 57 57 59 50 43 45 53 55 51 50 52 54 58 61 60

GFSCGP_500_spd_021.txt.gz
Wind_Speed
42 42 39 40 41 42 42 45 48 47 50 53 50 48 44 42 42 43 42 35 31 34 36 37 37 36 36 36 36 35 35 33 33 32 33 35 34 34 39 40 40 40 41 40
43 44 42 44 45 47 48 50 50 53 51 53 49 48 42 39 44 44 45 44 41 38 39 39 40 40 39 40 41 40 39 39 39 40 39 41 41 42 40 42 44 45 44 41
44 44 43 44 48 48 46 47 48 49 48 45 49 49 42 41 44 45 43 42 40 37 36 38 37 37 38 39 38 37 37 38 39 42 44 45 45 46 47 46 45 45 46 46
39 37 37 39 41 44 44 45 45 44 47 47 47 52 46 49 49 48 48 46 46 41 40 36 38 40 42 42 42 41 41 39 37 41 42 45 48 51 51 51 49 46 47 48
38 40 38 38 41 44 45 46 45 45 47 51 49 53 51 52 51 51 52 50 48 45 44 46 41 37 37 40 42 43 42 42 44 46 47 49 48 50 53 54 54 53 51 53
44 44 43 44 43 43 45 48 48 49 50 54 51 53 54 53 52 51 51 51 50 47 45 47 45 44 46 43 40 45 45 50 55 55 54 56 55 56 57 58 60 59 61 60
42 41 42 44 45 45 47 49 48 51 53 54 54 56 54 52 52 53 53 53 52 51 52 52 54 54 53 49 48 53 56 55 59 60 61 59 62 61 63 64 64 66 70 69
43 42 43 46 47 48 48 49 49 51 52 51 50 54 50 52 53 54 53 54 55 54 54 58 58 58 57 55 54 57 60 60 60 61 62 64 67 71 72 73 73 72 73 79
45 44 41 41 44 47 51 53 55 58 58 57 54 53 52 51 52 54 55 55 56 58 61 63 64 64 64 61 59 61 63 66 68 69 69 69 71 75 79 81 83 85 85 87
49 50 52 52 53 52 52 53 55 54 55 56 52 47 50 50 50 52 55 59 60 61 62 64 66 66 66 67 67 68 69 71 72 73 74 74 74 76 77 79 81 83 87 90
57 58 55 55 52 50 51 50 49 51 53 55 55 52 51 54 55 58 59 60 61 63 65 66 69 69 70 72 74 76 77 79 80 77 72 75 73 74 79 81 80 76 78 81
51 52 53 49 50 50 50 46 49 53 54 56 58 58 54 55 56 57 59 61 62 65 67 69 73 75 75 75 74 75 75 73 72 74 77 77 76 83 88 84 82 77 77 80
51 53 53 53 52 50 48 49 52 56 58 58 59 60 54 57 58 60 63 65 68 69 72 74 75 79 81 82 84 83 81 80 79 80 82 80 79 84 89 84 79 82 82 85
52 53 53 51 52 52 53 52 54 58 60 59 61 59 58 58 61 64 65 66 70 72 74 77 78 81 83 85 86 88 89 90 91 93 93 94 97 96 99 96 93 100 94 99
52 52 55 53 55 58 58 57 58 62 59 60 63 64 65 66 69 70 70 71 73 77 78 80 80 82 85 87 88 91 92 94 96 98 99 101 103 105 106 109 110 110 105 105
53 56 58 57 57 59 62 60 63 62 63 67 68 72 69 72 72 73 74 75 77 80 82 83 82 81 82 83 83 84 86 87 88 89 89 89 90 92 96 102 107 108 108 109
57 59 59 61 61 62 66 58 61 64 64 69 73 74 74 74 74 76 78 80 81 81 79 76 77 78 78 76 76 74 74 75 75 76 77 78 81 82 83 83 85 86 89 93
61 61 62 63 64 69 63 65 65 69 70 71 75 75 76 77 78 79 79 79 77 74 72 70 67 66 66 67 66 66 66 66 66 67 68 70 72 74 76 77 78 78 80 81
59 59 63 62 65 68 65 63 67 70 70 69 72 73 76 77 77 77 75 74 70 64 59 57 55 55 57 59 59 60 62 63 65 67 69 71 73 75 77 78 79 79 79 79
57 59 61 64 67 69 67 66 69 73 74 71 76 77 79 80 80 75 70 64 56 53 53 53 53 53 53 55 57 60 63 66 67 68 70 72 74 76 76 76 77 79 80 80
58 61 63 65 72 73 69 71 71 74 75 76 77 78 79 78 75 68 57 50 50 51 51 51 52 53 55 57 60 62 64 65 67 69 71 74 76 75 75 73 72 72 72 71
59 61 63 68 72 75 71 73 72 74 77 77 78 78 75 69 59 51 47 48 49 48 50 51 53 56 58 60 61 62 63 65 67 70 71 72 71 69 69 67 64 63 61 54
62 58 65 68 72 73 73 72 72 75 76 75 76 71 62 55 48 46 47 49 49 48 49 50 53 55 58 60 61 63 65 67 67 67 66 67 65 62 56 54 53 54 52 46
60 62 67 71 70 69 67 66 71 69 67 66 63 56 51 49 48 47 47 47 48 48 50 52 53 55 58 60 62 63 64 63 62 62 65 62 56 49 46 45 47 51 50 45
62 67 67 72 71 68 70 67 64 62 59 57 52 49 48 48 48 48 47 48 49 50 51 53 54 57 59 59 60 60 58 58 59 60 61 54 45 42 40 42 42 42 42 41
63 67 69 71 67 67 65 60 59 57 55 55 51 47 46 47 48 47 47 48 49 50 53 54 56 58 58 57 55 54 57 57 58 57 53 44 40 39 38 37 37 42 42 43

GFSCGP_500_spd_024.txt.gz
Wind_Speed
38 39 36 37 39 39 39 39 40 38 41 45 42 44 41 42 42 40 34 32 35 37 38 40 40 39 39 39 38 40 39 37 37 37 35 36 37 36 37 38 39 39 40 40
40 42 38 41 41 41 41 42 41 42 41 42 41 42 39 37 38 39 38 37 36 35 35 38 40 41 41 40 39 38 37 38 37 38 41 41 41 43 44 44 45 46 46 46
40 39 37 37 39 38 39 37 38 39 38 43 45 44 38 39 39 38 41 40 39 39 37 35 35 38 41 42 44 45 45 43 42 40 40 42 45 45 47 48 49 49 50 51
37 31 34 34 34 36 36 36 38 39 43 43 44 48 42 40 42 43 42 43 43 44 41 40 40 40 38 38 40 44 46 49 47 47 47 45 44 44 45 48 50 51 51 54
38 38 34 34 35 37 37 39 40 41 42 44 44 47 50 48 48 48 48 47 47 43 44 44 42 42 45 41 41 42 42 44 48 50 52 53 50 53 52 52 54 56 55 54
38 38 37 38 38 37 37 37 39 41 43 46 43 47 51 49 48 46 46 47 46 45 46 46 46 46 47 50 47 45 45 46 48 50 52 55 56 58 59 61 61 60 62 61
40 39 40 40 41 39 39 38 41 45 45 46 45 47 46 46 51 53 53 53 50 50 49 50 51 50 51 52 53 55 54 53 52 53 54 62 62 63 67 71 69 67 68 68
41 39 39 40 39 39 42 41 40 44 47 47 50 53 53 54 56 54 55 54 51 51 52 52 54 54 56 58 59 61 61 60 59 59 60 62 68 70 70 72 75 76 73 74
43 42 38 40 39 40 42 46 46 51 52 55 57 60 59 58 56 55 53 52 53 54 55 58 59 60 61 63 64 64 65 67 68 67 66 67 69 72 74 76 77 78 80 80
42 43 42 43 46 48 50 52 54 56 58 61 60 57 57 54 54 53 52 53 55 57 59 61 64 65 65 66 68 69 68 69 69 70 72 74 76 76 78 80 82 83 84 85
41 44 48 52 54 51 50 51 52 53 56 59 59 56 54 53 54 54 55 56 59 61 63 65 67 69 70 71 72 74 75 75 76 78 80 81 81 82 82 84 83 84 84 83
53 56 59 53 50 48 48 49 50 54 55 56 60 55 54 56 58 58 59 62 64 65 66 67 68 71 74 76 77 78 79 80 81 82 83 84 85 86 88 88 87 87 84 82
54 56 56 54 52 50 50 48 51 57 58 58 60 60 55 57 60 61 64 66 67 67 68 70 71 74 77 78 80 81 83 84 85 85 85 86 87 88 89 89 89 91 92 90
52 54 56 56 55 54 53 52 55 59 61 61 60 62 58 59 61 64 66 67 68 69 71 72 74 76 78 80 82 84 87 88 88 89 89 90 91 92 93 94 94 94 95 97
59 60 58 55 55 56 55 54 59 62 63 67 61 63 61 60 62 64 64 65 68 71 72 73 75 77 79 81 83 85 87 87 87 87 87 88 88 88 89 90 91 91 92 94
57 59 57 56 57 59 58 55 60 63 62 62 61 66 58 63 64 65 68 70 72 72 73 75 76 78 80 81 83 84 85 86 85 82 80 78 76 74 74 74 75 76 78 81
58 56 56 57 57 61 64 58 59 60 64 66 66 64 63 63 66 69 71 73 74 75 77 79 79 80 82 84 84 84 83 79 74 70 67 65 65 65 65 66 68 69 70 70
54 55 58 62 62 69 61 58 61 65 63 65 65 65 66 69 70 72 74 75 76 77 79 78 79 80 81 81 79 75 71 67 66 64 63 63 64 65 68 70 71 71 72 73
54 58 64 66 68 69 62 60 63 66 64 64 65 66 70 70 71 71 74 75 76 76 77 79 78 75 70 66 63 62 62 62 61 61 62 64 67 70 72 72 73 73 73 73
57 60 62 65 68 69 62 61 61 63 66 61 66 68 69 70 74 73 77 75 76 77 77 73 67 62 59 57 57 59 60 61 61 62 64 67 70 71 72 73 73 71 71 67
57 59 60 60 65 69 59 59 60 65 60 64 66 69 72 74 75 74 76 76 75 72 64 59 56 54 54 54 56 57 59 61 62 64 66 67 68 70 70 70 68 65 65 65
57 59 61 62 66 67 59 65 64 62 66 68 71 73 75 75 75 76 75 75 69 58 53 51 51 52 53 53 55 56 57 59 60 63 65 67 68 69 69 67 65 63 57 51
58 56 57 62 64 64 66 66 66 68 71 73 74 74 76 76 76 75 72 64 55 52 51 50 51 52 52 53 54 55 55 56 60 62 63 65 67 66 66 65 60 51 44 40
53 54 60 64 62 63 67 67 68 70 71 72 73 74 74 75 73 68 58 54 50 49 50 51 52 52 52 53 54 56 57 58 59 61 63 64 63 62 63 60 51 43 41 41
54 57 60 66 65 67 68 68 69 70 71 70 70 69 70 67 61 52 52 51 47 48 49 51 52 53 54 55 57 57 58 58 60 61 61 61 59 59 59 51 43 40 42 41
53 58 66 68 65 68 70 70 70 71 69 67 65 64 61 55 52 49 49 47 46 48 50 52 53 53 55 57 58 58 59 59 59 58 57 57 56 55 51 41 36 42 40 39

GFSCGP_500_spd_027.txt.gz
Wind_Speed
35 35 32 35 38 38 37 38 38 34 35 37 35 37 33 35 34 33 31 29 30 30 32 36 39 40 40 40 39 37 37 36 35 37 39 41 41 40 41 44 46 46 46 46
37 40 37 39 41 42 42 41 36 38 37 37 35 33 32 34 35 34 33 33 31 32 34 35 36 38 40 41 41 42 43 39 36 37 38 39 41 44 47 47 48 48 49 50
43 43 42 43 41 39 39 36 36 37 35 36 38 38 34 35 36 36 35 35 36 38 39 40 39 38 38 38 39 41 43 46 47 45 44 42 42 44 46 49 51 54 56 56
45 41 40 38 35 35 36 34 37 37 40 40 42 45 39 35 37 38 37 38 39 40 40 41 41 42 41 41 41 41 42 44 45 46 48 49 48 48 47 49 51 53 55 59
37 35 35 36 36 36 34 36 38 41 42 46 41 44 46 42 42 40 39 38 38 40 43 46 47 47 47 47 47 48 47 47 47 48 50 51 53 54 54 55 56 56 57 58
37 38 35 35 36 35 37 39 42 44 46 51 42 44 50 45 44 42 43 44 45 48 49 52 52 52 52 50 50 51 53 53 52 52 52 54 56 58 60 61 63 63 63 63
37 36 36 36 36 38 41 42 43 46 45 48 49 48 46 45 46 46 47 51 54 56 55 55 57 55 54 53 52 53 55 56 56 57 59 61 61 62 62 63 66 69 70 71
39 37 38 39 41 42 43 44 45 45 47 47 46 52 51 52 52 53 56 57 57 58 57 58 59 58 56 56 57 59 61 62 63 64 66 67 68 68 69 69 70 70 72 79
41 41 40 40 43 43 43 43 40 45 47 49 52 55 55 56 55 55 56 56 56 56 55 56 56 57 59 63 65 66 66 67 68 68 69 71 72 73 73 75 77 77 78 81
46 46 44 43 41 41 41 41 44 47 51 57 58 58 58 53 53 53 54 54 55 56 57 58 60 63 65 67 68 70 70 71 72 74 75 76 77 76 76 77 78 81 83 85
47 50 52 48 44 42 44 48 50 48 53 56 57 61 58 54 55 57 58 57 58 58 61 63 65 67 68 70 72 74 75 75 76 77 78 79 80 81 82 82 83 84 85 86
43 47 51 48 50 50 50 48 46 50 53 53 57 63 59 57 58 58 58 58 60 64 67 69 70 71 73 74 75 77 78 79 80 80 81 83 84 85 86 87 88 89 88 88
43 49 52 57 56 54 53 50 49 52 56 62 62 63 57 57 58 58 60 63 65 68 70 71 73 74 75 76 77 77 78 80 83 84 85 85 85 87 88 88 89 89 89 89
52 57 58 59 58 57 56 53 55 58 62 61 61 59 59 59 60 63 65 67 71 71 73 74 74 74 75 75 76 78 80 82 84 85 86 87 87 88 89 90 90 91 91 92
54 57 56 56 57 56 56 56 60 63 62 65 60 60 57 61 63 65 69 71 70 72 70 69 70 71 72 75 77 78 80 82 83 84 85 86 87 88 89 88 87 86 85 83
58 58 58 60 61 62 63 61 66 65 64 64 62 64 60 63 65 68 68 68 69 67 68 68 70 72 73 76 78 80 82 84 85 86 87 86 84 81 77 73 70 69 66 66
60 61 61 63 64 68 72 68 65 63 60 62 67 64 64 65 68 69 69 68 67 68 69 71 73 75 76 78 80 82 83 85 86 84 80 75 70 67 66 65 64 64 65 67
63 64 65 68 69 73 71 64 62 62 60 63 67 68 68 69 69 67 65 66 68 70 71 73 74 76 78 80 81 83 84 83 79 73 67 64 63 62 62 63 65 66 69 71
67 66 66 67 69 69 70 67 62 62 60 63 68 67 68 67 68 66 66 70 70 71 72 74 76 78 78 80 82 81 76 69 65 62 61 61 61 62 62 63 65 68 70 71
60 59 60 64 69 73 67 64 63 65 68 63 66 67 69 68 68 65 70 70 70 72 74 75 77 78 79 78 75 66 62 60 59 60 61 62 62 62 62 64 66 69 70 69
56 56 58 59 66 70 67 64 63 66 65 64 67 67 67 67 69 69 69 71 72 74 76 76 76 76 73 65 59 57 57 57 58 59 60 61 62 62 63 65 68 69 68 68
56 55 59 62 67 70 62 65 65 64 64 65 64 66 68 69 69 71 72 73 74 75 74 73 72 66 59 56 55 54 55 55 56 58 60 61 62 64 66 67 68 69 69 67
55 55 56 60 63 64 67 65 65 64 64 64 67 69 71 72 71 73 74 74 73 73 70 67 62 57 55 54 53 54 54 56 57 58 59 61 64 65 66 67 69 68 68 66
50 51 57 60 60 63 65 64 63 64 66 67 70 72 74 74 73 73 72 70 67 64 62 59 55 55 54 54 53 54 54 56 58 59 60 62 63 64 65 67 68 66 65 60
46 48 55 59 61 61 63 65 65 66 69 71 72 73 73 73 72 68 64 60 58 53 54 53 52 52 52 52 53 55 56 57 59 61 62 62 62 63 64 64 62 61 61 56
46 50 60 63 60 63 65 65 67 69 71 71 70 71 71 67 62 58 56 54 51 49 50 51 52 52 52 53 54 55 58 60 62 62 62 61 62 63 62 60 57 56 56 48

GFSCGP_500_spd_030.txt.gz
Wind_Speed
34 34 29 32 32 34 35 35 35 33 37 38 36 36 32 35 32 29 29 29 29 29 29 29 29 31 34 37 37 38 38 38 39 39 40 40 41 42 44 46 46 48 49 50
36 35 32 33 35 38 39 40 39 39 38 37 35 32 33 32 32 34 33 31 30 30 31 32 32 33 35 36 39 40 40 41 42 43 45 45 46 47 47 46 48 50 52 54
37 38 35 37 39 41 43 42 40 39 36 35 36 35 32 33 37 39 38 36 33 32 32 34 34 35 35 35 37 37 39 42 43 45 46 48 50 52 52 52 53 53 53 55
43 41 42 42 42 41 41 37 37 36 37 37 38 42 38 35 37 36 36 36 36 36 35 34 34 36 38 41 42 43 45 47 49 50 50 51 53 53 55 56 56 56 56 57
42 44 43 43 39 39 36 36 37 37 38 41 41 45 47 42 36 35 36 36 35 34 36 38 40 42 46 49 52 53 52 51 52 54 56 56 57 57 59 60 60 61 61 61
40 40 38 37 38 38 37 37 38 39 41 46 39 44 50 44 42 40 35 34 37 39 41 43 45 48 51 53 55 55 56 54 55 55 55 56 57 57 58 59 61 63 65 67
38 38 38 39 36 37 38 39 41 43 43 46 46 47 46 47 45 43 42 45 45 46 47 50 51 53 55 56 57 57 57 57 56 57 58 60 61 62 64 65 67 69 71 71
38 38 38 37 37 41 41 42 42 43 46 48 47 47 47 47 45 44 47 47 46 48 49 52 53 54 57 58 59 59 60 59 59 60 63 65 66 68 70 71 72 73 74 75
40 41 39 40 41 41 42 44 40 46 47 50 53 52 49 50 51 52 49 49 50 50 51 54 57 58 59 60 61 61 62 64 65 67 68 71 72 73 75 75 77 78 79 80
43 44 42 41 42 44 45 45 45 44 46 53 56 55 56 55 54 52 51 51 52 53 57 59 61 62 62 63 65 66 68 70 71 73 75 74 75 76 76 76 76 78 79 81
44 45 47 46 47 44 45 49 47 45 50 52 57 59 62 60 56 57 55 54 54 56 59 61 63 64 65 67 70 72 73 74 76 78 78 77 77 77 77 78 79 81 83 85
46 48 49 48 48 49 50 49 47 50 51 54 60 62 61 59 57 56 55 56 58 60 63 65 65 66 68 71 73 74 76 77 78 78 79 80 81 81 82 83 84 86 87 88
50 53 53 54 56 54 50 47 48 51 53 63 62 67 58 57 58 55 55 59 61 63 64 66 68 70 72 73 75 77 77 77 78 80 79 78 81 82 83 85 87 88 89 89
56 57 59 61 59 59 60 58 54 55 62 62 65 60 59 58 57 57 59 62 64 66 68 70 71 73 74 76 77 77 77 77 77 78 78 80 81 84 86 87 87 88 89 90
59 61 61 61 60 60 62 61 62 64 60 64 59 58 57 59 59 60 63 67 68 70 71 72 73 73 75 75 75 75 76 77 77 78 80 81 82 83 85 86 87 89 91 90
54 62 64 64 65 66 67 67 73 62 64 62 60 61 57 59 62 64 68 71 69 70 72 71 72 73 72 72 73 74 75 77 78 79 80 81 83 84 86 88 86 82 77 72
60 62 64 68 68 68 72 75 66 65 61 57 61 56 58 61 65 68 69 70 71 72 72 72 71 70 70 71 73 75 77 77 78 80 81 83 84 86 83 76 71 67 64 64
63 66 67 70 70 75 75 71 70 66 60 55 56 57 60 65 69 71 72 73 74 73 71 69 69 70 72 74 75 76 77 79 81 82 83 83 81 75 69 64 62 61 61 63
62 68 71 75 76 72 72 71 65 62 62 64 61 63 69 71 72 73 72 75 74 70 69 69 70 71 74 75 76 78 79 81 82 82 81 75 68 64 61 60 60 61 61 61
59 66 71 73 74 75 76 71 62 64 68 62 65 69 71 72 73 69 74 72 70 70 70 71 73 74 75 76 78 80 81 81 79 76 68 64 62 61 60 60 61 61 61 62
60 67 70 70 74 78 72 67 65 68 68 66 68 69 69 69 71 72 70 69 69 70 71 73 75 75 77 79 80 80 80 75 68 62 61 60 60 59 60 60 61 62 63 65
61 67 70 71 70 73 67 64 64 65 66 63 63 65 65 67 68 68 68 68 70 72 73 75 77 78 78 79 79 77 70 62 59 57 57 57 56 57 58 59 61 63 66 67
65 64 66 69 70 69 62 60 60 62 61 61 60 62 65 66 65 67 69 71 73 75 77 78 79 78 77 75 69 62 58 57 56 54 55 55 56 57 59 61 63 66 67 67
58 57 65 62 62 57 57 60 60 62 61 61 63 66 69 69 70 72 73 75 76 77 79 78 76 71 66 60 58 56 55 54 53 54 55 56 57 59 61 63 65 64 65 66
55 54 56 52 51 54 57 59 61 62 62 62 65 67 70 73 73 74 75 76 75 74 68 66 63 57 55 56 56 55 54 53 53 55 56 58 60 62 63 63 63 63 63 61
45 42 50 53 56 59 59 62 61 62 62 65 68 69 70 73 73 72 68 65 62 59 56 53 52 52 53 55 56 57 55 55 55 55 58 61 63 61 61 62 59 57 57 58

GFSCGP_500_spd_033.txt.gz
Wind_Speed
36 35 29 31 31 31 31 29 27 27 32 33 32 33 30 30 29 28 27 25 27 28 28 30 31 29 30 29 31 31 31 32 35 37 40 42 44 45 46 47 47 48 48 48
34 31 31 32 33 33 31 32 30 32 35 37 36 32 28 26 25 26 25 28 30 31 30 30 29 30 30 29 29 31 34 33 35 37 39 41 44 47 49 51 52 52 53 54
37 37 33 33 33 33 34 36 35 39 39 38 36 31 27 27 26 28 30 31 31 31 32 31 31 31 31 32 32 33 36 36 38 41 44 46 48 50 53 54 55 56 56 56
38 34 33 35 36 38 40 39 41 41 41 38 36 36 28 29 29 29 30 32 31 31 33 32 29 32 36 37 42 41 42 44 45 46 48 50 53 55 57 60 60 60 60 59
40 39 38 39 38 40 42 41 41 41 40 40 37 38 35 32 31 32 32 31 32 35 32 32 34 38 41 44 46 47 48 48 49 51 52 54 57 59 61 63 65 65 65 65
41 43 42 39 38 39 39 38 39 42 43 43 36 39 43 38 34 32 34 35 32 32 35 38 42 46 47 49 51 51 50 50 51 54 55 57 59 59 60 61 62 64 64 66
44 44 45 43 40 39 38 39 42 43 43 42 41 42 41 41 38 34 32 33 33 35 42 45 48 50 51 51 50 50 52 54 56 56 56 57 58 59 60 62 64 67 70 72
47 43 42 40 38 39 40 42 42 43 43 45 44 44 44 39 38 38 37 36 40 44 47 48 49 50 54 56 55 57 60 60 59 59 60 61 62 63 65 67 69 71 74 76
48 46 43 41 41 41 42 44 40 45 47 47 46 46 44 43 42 41 40 45 48 50 50 51 53 55 57 58 58 62 63 63 64 63 64 66 68 69 70 72 75 77 78 78
48 46 42 42 42 44 45 44 47 48 48 48 49 47 47 48 49 43 44 47 48 51 56 59 59 58 60 60 61 64 65 66 66 66 68 71 73 74 76 77 78 78 78 79
44 45 44 44 45 44 47 48 49 49 50 49 50 53 54 55 51 48 48 50 53 58 59 59 59 61 60 61 64 67 68 68 70 71 74 76 77 78 80 80 80 80 80 79
41 46 47 47 48 49 50 50 50 51 49 48 52 53 56 54 52 53 53 55 59 61 60 61 62 62 63 66 68 69 70 71 73 75 77 77 78 78 78 78 78 78 78 79
45 49 49 51 53 53 48 48 50 50 49 54 55 57 54 51 53 52 53 58 60 61 63 64 63 65 68 69 71 72 74 75 76 77 78 78 79 79 78 79 80 79 80 81
50 53 55 56 56 53 54 54 53 53 57 58 61 56 57 52 52 51 57 64 68 67 63 63 63 67 68 70 72 75 75 77 78 77 78 79 78 78 79 79 80 82 83 84
59 60 59 60 59 60 60 60 58 60 59 63 58 61 57 51 52 54 59 66 66 65 62 65 66 68 71 73 75 76 78 78 77 77 76 77 77 78 79 80 81 82 83 84
64 64 63 64 63 64 66 64 63 62 62 64 65 65 57 58 61 60 63 65 64 62 65 67 68 71 73 75 77 77 74 74 74 74 77 78 78 79 80 81 82 83 84 86
64 61 60 65 64 64 66 70 66 66 65 63 67 62 65 64 64 63 62 63 64 65 67 70 71 72 73 74 73 71 72 74 75 76 77 78 78 80 81 82 83 84 82 78
67 68 63 55 59 66 70 71 70 66 62 63 66 68 70 67 65 65 62 63 65 66 68 69 70 69 70 70 69 71 73 75 76 78 78 79 80 81 82 82 81 76 70 67
69 67 66 65 67 70 71 68 66 68 67 71 73 73 72 70 69 66 63 67 68 68 69 70 68 69 70 72 72 73 75 77 77 78 80 82 82 81 81 77 69 65 63 60
60 63 66 68 68 69 64 62 66 71 71 74 73 70 70 69 70 66 71 71 71 73 72 70 70 70 70 73 73 74 76 78 80 81 81 80 78 75 69 65 61 59 58 59
57 57 55 56 62 64 58 58 63 70 68 69 73 72 70 69 70 68 68 68 68 68 67 67 69 69 70 73 74 76 79 80 81 81 77 73 67 62 60 58 56 56 58 59
54 55 57 61 61 64 61 63 66 67 69 69 70 71 69 66 67 64 62 63 65 65 66 67 68 69 74 76 78 78 79 79 76 72 67 62 60 58 56 55 56 58 59 60
58 57 58 61 64 65 67 67 68 68 67 67 67 64 63 64 60 61 60 62 63 65 68 70 71 74 74 74 73 71 69 69 67 64 61 58 56 56 56 57 58 59 60 61
55 57 61 63 66 68 68 65 64 62 63 62 60 60 58 58 58 59 62 64 66 69 71 71 68 66 67 67 66 64 63 61 60 60 59 58 58 57 57 58 59 60 62 63
54 56 60 64 63 63 61 59 61 63 62 59 58 58 56 58 61 65 66 68 70 68 62 62 63 63 62 61 59 57 57 58 59 59 59 59 59 58 58 59 60 62 64 62
65 66 67 67 65 64 61 60 59 58 56 57 56 57 61 64 64 67 67 65 60 58 58 59 59 58 55 53 53 55 56 57 58 58 59 59 59 59 60 61 63 63 62 61

GFSCGP_500_spd_036.txt.gz
Wind_Speed
37 38 31 33 36 33 31 29 27 27 32 32 32 31 29 30 30 31 29 25 25 24 24 25 27 28 29 30 28 26 28 29 31 32 32 33 35 36 37 39 40 43 45 47
40 38 35 36 34 32 30 32 29 30 34 35 35 32 32 33 32 31 29 27 26 27 28 28 28 28 29 29 30 30 31 31 32 36 38 37 38 39 41 43 46 49 50 52
40 37 34 34 35 34 34 35 33 35 36 38 37 37 34 34 32 31 31 30 30 30 30 29 28 28 29 31 33 34 36 38 39 40 41 43 45 47 48 50 53 54 56 58
39 36 36 36 37 36 38 35 37 39 41 41 39 43 32 32 32 31 31 32 32 31 31 31 31 31 32 32 34 39 42 42 44 45 47 50 51 52 54 57 59 60 62 63
39 37 37 39 36 39 41 39 42 42 43 45 43 41 38 32 32 33 33 33 34 34 31 29 31 31 31 35 40 43 45 46 49 49 53 54 56 56 58 59 61 63 65 66
39 39 38 37 38 42 45 43 41 43 45 48 39 39 44 32 32 33 34 34 33 33 32 31 31 32 35 40 45 47 50 50 51 55 56 59 59 59 59 63 64 66 66 67
38 41 44 43 43 42 43 43 45 46 47 45 42 42 42 39 34 32 34 35 34 32 31 31 33 37 42 44 47 50 52 55 56 58 59 60 61 62 63 65 66 67 68 70
47 51 51 51 46 46 45 46 46 46 45 44 45 46 42 39 39 36 37 35 32 31 33 36 40 42 45 48 50 51 55 59 60 61 61 61 63 65 66 67 68 69 71 73
49 51 51 49 48 47 46 46 39 43 46 47 47 45 43 42 41 41 38 36 34 36 38 41 45 47 49 50 53 58 60 59 60 62 62 63 66 66 68 69 72 77 79 81
51 51 51 52 48 49 48 43 44 46 46 46 47 47 47 45 44 43 40 39 38 39 43 46 49 50 52 55 58 61 62 61 62 63 64 65 67 69 70 73 76 79 82 82
50 49 50 52 50 45 44 46 45 45 46 47 48 47 48 49 47 45 43 41 43 47 49 50 52 53 54 56 60 62 63 61 62 65 67 68 70 73 75 78 80 82 82 80
50 51 53 53 49 45 47 48 48 50 47 46 48 49 52 51 50 48 47 47 49 52 54 54 56 56 55 58 61 62 62 63 65 67 70 73 75 78 80 81 80 80 80 79
44 48 49 52 53 53 51 45 46 48 48 50 54 50 54 51 49 51 51 53 54 56 59 61 60 59 62 63 63 65 66 66 68 70 73 76 79 81 82 81 79 79 79 79
48 49 50 51 51 49 49 47 47 50 53 53 54 55 56 53 53 55 56 58 59 61 63 61 62 65 64 63 65 66 68 69 72 75 77 79 80 80 79 78 79 79 80 80
48 52 51 52 54 56 55 55 54 58 56 63 59 63 58 56 56 60 61 63 65 64 63 64 67 68 65 66 67 68 71 73 76 79 80 80 78 78 77 79 80 80 81 81
57 56 55 55 57 61 65 63 62 64 65 66 66 66 64 56 55 61 65 65 65 64 65 69 70 67 66 67 69 72 74 76 79 78 76 75 74 76 76 78 80 80 81 81
54 56 56 59 59 63 70 65 67 66 66 66 67 60 61 57 59 65 66 66 66 68 69 69 72 70 68 69 71 73 75 78 76 74 72 73 74 77 78 79 80 82 83 82
63 61 61 59 59 72 69 70 71 70 66 65 64 62 57 60 63 65 67 67 69 70 71 71 71 68 69 72 72 74 74 73 71 70 73 76 77 79 79 80 83 82 81 79
59 56 57 63 66 69 69 71 70 66 63 63 61 59 61 65 65 65 67 71 73 72 70 69 70 70 71 71 71 70 69 69 71 73 75 78 80 80 82 82 80 77 73 68
54 60 69 71 72 72 68 69 70 70 69 65 61 61 64 64 66 65 68 68 68 70 71 70 70 69 70 69 69 67 68 69 72 76 78 80 80 77 76 75 72 67 64 62
58 56 56 56 59 61 60 62 66 66 64 63 62 61 62 64 66 67 68 70 71 71 71 69 67 67 66 66 65 66 70 73 76 77 73 71 73 72 70 65 63 60 59 57
60 62 61 60 60 62 60 59 59 58 61 61 62 63 65 67 68 70 70 70 71 70 68 66 65 64 66 67 68 70 73 72 68 68 68 69 68 64 60 60 60 59 58 58
62 61 59 57 55 56 57 58 59 58 60 60 61 63 65 68 70 71 72 69 68 68 65 63 63 65 68 69 71 70 63 64 64 65 65 64 61 59 59 59 58 59 59 59
49 49 51 53 56 59 58 57 58 60 62 62 62 63 67 70 70 68 67 67 64 63 63 65 67 68 69 68 61 60 60 61 61 60 60 59 59 60 59 59 59 59 60 59
49 50 52 56 58 61 65 65 65 65 66 66 66 66 67 66 65 64 63 62 62 63 64 66 67 64 58 59 59 59 58 58 58 58 58 59 60 62 62 62 61 61 61 62
55 55 60 64 68 69 69 67 67 66 66 66 67 64 63 62 61 61 60 61 63 64 66 64 58 56 57 58 58 57 56 56 57 57 57 59 60 61 62 61 60 60 60 62

GFSCGP_500_spd_039.txt.gz
Wind_Speed
38 39 34 34 37 37 35 35 33 34 34 35 35 33 33 32 30 30 30 30 29 28 27 26 25 25 26 27 29 30 30 28 28 29 30 30 33 35 37 37 39 40 43 44
39 40 34 39 39 39 38 38 34 35 34 39 38 37 35 34 30 32 33 33 33 31 31 30 29 29 31 31 30 29 28 29 29 29 31 34 39 40 40 41 42 45 48 51
45 45 40 40 40 39 37 37 34 38 41 41 42 41 38 36 32 35 36 35 34 33 33 32 32 32 32 32 32 32 31 31 31 33 35 38 39 41 44 48 51 53 55 58
46 45 37 38 38 36 39 40 40 42 44 44 46 46 40 37 35 37 35 34 33 33 35 34 34 34 34 32 32 32 32 31 34 37 39 41 42 43 46 47 51 54 57 60
43 41 39 38 35 37 40 40 40 42 44 47 48 49 40 39 37 36 36 34 35 35 36 36 37 37 35 34 33 31 32 34 39 39 42 44 47 47 47 49 53 56 59 61
44 42 39 38 37 40 43 42 42 45 48 54 47 47 44 44 33 36 35 36 34 36 37 37 36 35 35 34 34 34 36 40 41 44 46 47 47 50 50 51 53 56 60 63
39 43 42 39 38 39 40 41 43 48 50 51 51 50 45 45 35 35 35 34 34 35 37 37 36 36 35 36 37 40 41 44 46 47 50 49 48 49 51 53 54 56 60 63
42 43 39 37 40 46 49 50 53 54 54 54 51 52 47 39 38 34 32 33 34 34 36 37 38 37 39 42 44 45 45 49 50 50 52 48 49 52 55 58 61 62 64 68
44 48 45 48 48 49 52 53 45 51 53 55 54 48 44 41 36 36 34 32 32 33 34 37 40 43 45 46 47 49 52 53 52 54 53 51 52 55 58 61 64 66 69 73
53 54 54 53 56 53 51 52 51 52 54 56 54 51 45 39 40 39 36 35 35 35 36 39 44 47 48 50 52 53 54 54 54 55 58 57 55 59 62 65 68 71 73 76
52 59 61 59 57 52 51 51 48 49 52 54 54 48 41 41 42 40 37 36 37 38 41 45 47 49 52 51 53 56 55 55 57 61 61 61 62 63 67 69 72 75 77 80
57 57 59 59 57 54 57 51 52 54 53 53 53 45 46 47 44 44 43 40 39 40 45 49 50 52 52 53 56 58 57 58 61 64 63 65 68 69 71 74 76 79 82 84
53 53 53 52 57 57 58 50 48 50 52 49 52 46 47 46 47 48 49 48 47 49 52 52 55 57 56 60 60 60 60 62 66 68 66 70 72 71 75 77 79 82 85 85
53 56 53 52 50 51 50 48 45 44 47 44 48 45 46 47 49 51 52 53 57 58 60 63 61 60 61 64 64 62 64 67 68 70 71 73 73 76 78 80 83 86 85 83
61 57 53 49 43 50 55 52 48 51 47 55 46 52 51 52 56 56 58 61 62 64 66 68 65 64 66 67 67 68 70 71 72 73 73 74 77 78 81 82 84 84 80 78
61 54 50 53 49 50 51 52 57 53 52 59 56 58 61 59 58 60 61 63 66 67 69 67 65 67 69 69 70 72 74 74 74 73 73 76 77 80 82 83 81 80 79 81
57 57 58 55 52 52 59 53 54 55 55 56 61 57 61 64 63 62 64 65 67 67 67 68 68 69 69 70 73 74 75 74 73 73 75 76 79 80 81 80 78 79 81 84
63 61 59 59 61 67 59 57 59 58 56 60 61 60 60 64 69 68 66 65 65 66 67 67 64 66 67 71 72 72 71 72 74 74 76 77 79 79 79 77 78 81 83 80
62 58 56 58 65 70 69 69 67 67 62 63 64 65 65 65 68 68 66 61 61 64 63 65 66 67 68 69 70 72 74 76 77 76 76 77 78 75 76 77 80 79 75 75
56 57 58 58 62 67 67 67 67 69 70 66 65 64 65 64 64 63 60 60 62 64 63 64 65 67 69 72 73 74 76 76 74 74 74 74 74 75 77 78 72 73 73 74
62 59 61 62 66 67 63 61 64 67 65 66 65 61 60 59 57 59 59 58 59 60 61 62 64 68 71 73 75 74 73 72 71 72 73 73 75 76 73 70 71 72 72 71
59 59 61 62 62 62 57 56 57 58 58 57 58 58 60 61 61 59 60 59 59 59 61 64 68 72 73 72 72 73 72 71 70 72 74 76 74 68 69 70 70 70 68 66
57 58 59 58 59 60 60 59 57 55 53 51 53 55 57 57 57 58 56 57 58 63 67 68 70 72 73 74 72 69 68 70 74 76 75 67 67 67 67 67 67 67 66 65
59 57 56 57 60 61 61 57 55 52 51 52 54 56 56 56 56 57 59 63 65 65 68 69 71 72 71 69 68 69 71 73 74 67 65 64 65 65 66 65 65 65 65 64
61 59 58 58 59 58 56 52 51 52 53 54 54 55 57 62 65 64 64 64 65 65 66 67 69 68 67 68 69 71 71 65 62 62 63 62 63 64 64 64 64 62 62 64
56 57 55 53 55 57 59 58 58 60 62 65 66 68 71 68 64 64 63 64 65 66 67 65 65 65 67 69 68 62 59 59 61 61 62 62 63 63 63 63 61 61 62 63

GFSCGP_500_spd_042.txt.gz
Wind_Speed
39 39 34 32 35 35 37 34 34 32 38 37 37 37 37 32 30 29 29 29 28 29 29 29 29 29 28 29 28 28 29 29 28 29 29 27 25 25 27 30 32 35 34 36
43 40 35 37 38 37 37 38 37 35 42 41 38 40 36 36 30 33 34 31 31 29 32 32 32 32 30 30 30 31 32 32 30 29 28 26 27 28 30 32 32 35 38 40
45 41 39 40 39 42 40 41 38 40 44 42 40 41 37 36 36 34 33 36 36 32 33 33 33 33 33 33 34 34 34 33 32 31 30 30 31 32 33 35 38 40 42 44
49 42 45 41 41 41 42 39 40 38 41 42 42 48 38 36 38 37 33 40 40 36 34 33 33 33 33 35 36 37 37 35 34 34 32 32 34 35 38 41 43 45 45 45
50 47 46 43 38 41 41 38 39 38 41 46 44 49 37 33 35 35 35 40 41 39 36 34 34 34 35 36 37 39 37 36 35 34 34 36 38 39 43 46 49 50 47 47
50 48 45 41 38 40 40 39 41 43 44 52 42 44 53 36 37 37 36 38 39 37 36 35 34 35 35 36 37 37 36 35 36 37 39 41 43 46 50 52 53 53 50 51
46 48 48 43 41 42 42 42 44 48 50 51 47 49 49 43 40 37 36 36 36 35 35 34 35 34 35 36 37 36 36 37 39 41 43 44 48 52 54 55 55 53 53 56
46 46 43 38 40 38 44 44 45 48 51 53 53 52 47 45 41 34 33 32 33 32 32 32 34 34 36 36 36 38 40 41 43 45 47 50 53 55 56 57 55 55 58 61
41 45 43 38 38 41 45 48 40 50 52 55 55 52 49 43 35 33 33 31 29 31 32 33 34 35 33 36 38 40 42 45 46 49 52 55 58 59 58 57 58 60 61 64
51 49 50 46 45 48 50 47 48 52 56 58 56 51 47 42 38 35 33 32 30 30 27 29 32 35 37 37 38 40 42 47 50 51 54 58 60 61 60 60 62 63 66 69
51 53 52 50 50 46 50 53 54 54 57 59 56 48 48 45 45 40 35 32 31 29 28 30 31 34 37 41 42 44 46 49 52 55 59 61 62 62 63 65 66 68 71 74
54 55 57 55 55 59 59 57 55 54 54 54 57 46 45 46 44 39 35 34 34 34 34 35 36 36 40 45 48 49 51 52 55 59 62 64 66 66 67 69 71 73 75 76
56 57 55 58 59 59 56 54 51 46 50 52 56 46 48 43 43 41 38 40 40 39 38 39 40 45 49 52 54 56 57 59 60 60 64 66 67 69 71 74 75 75 76 78
57 59 59 61 59 58 56 51 49 51 55 53 51 49 46 42 42 39 40 44 43 43 42 45 50 53 55 56 58 61 63 63 64 65 67 68 70 72 74 75 74 76 78 79
65 65 64 62 57 58 59 57 57 55 51 53 46 49 43 44 44 46 48 50 47 46 50 54 56 59 61 60 62 64 67 67 67 68 69 70 72 74 74 73 76 79 81 82
62 61 61 62 58 57 58 60 58 59 55 52 49 50 48 45 46 49 51 52 53 54 56 58 60 62 64 64 66 67 67 69 70 69 69 71 74 74 74 75 80 82 82 84
58 57 55 57 56 55 60 54 55 55 55 52 53 45 47 47 50 50 51 53 54 56 59 63 64 66 68 67 66 65 68 70 66 68 69 71 71 75 77 79 81 81 83 85
60 60 62 62 63 66 56 52 53 57 55 57 52 47 50 53 51 53 55 56 55 56 59 63 65 65 63 63 64 66 66 66 66 67 67 70 73 77 80 81 81 83 82 81
64 63 66 68 70 66 61 59 60 61 61 60 59 59 59 58 58 59 58 55 55 58 59 59 59 56 57 59 60 61 62 62 62 64 68 73 76 78 78 80 80 79 79 81
65 65 64 61 64 69 64 60 60 61 66 62 59 59 58 59 62 59 57 59 60 59 56 54 57 57 58 62 63 63 61 61 63 68 71 74 75 77 76 75 76 78 80 81
57 58 61 60 62 63 61 58 60 64 62 62 62 60 60 60 60 60 59 59 58 54 51 53 57 61 62 62 60 59 62 63 67 70 72 74 73 72 72 75 77 78 80 74
58 59 61 61 60 64 60 61 61 61 60 60 59 58 58 58 56 55 54 54 54 54 54 56 59 60 58 58 60 63 65 68 70 72 73 73 70 72 74 76 78 75 70 70
55 56 56 57 60 62 63 62 62 62 62 58 57 57 54 54 54 54 55 55 54 54 53 52 52 56 60 62 66 68 69 70 72 73 71 71 71 73 76 75 69 69 70 70
53 55 58 57 57 57 57 56 55 55 57 58 58 57 57 56 55 54 53 54 54 55 56 59 64 65 63 65 64 66 69 71 70 71 70 71 74 75 70 67 68 68 68 69
58 56 56 57 55 54 54 53 52 50 50 50 52 52 52 52 52 53 54 55 58 61 66 66 66 64 63 64 66 68 69 70 69 71 73 74 71 66 66 67 66 67 68 68
64 66 65 62 59 58 55 54 53 53 52 52 52 53 54 55 57 58 60 63 65 66 66 65 62 63 64 66 68 69 69 70 72 73 68 65 65 65 65 65 66 67 67 67

GFSCGP_500_spd_045.txt.gz
Wind_Speed
38 37 30 30 34 33 33 34 33 34 36 38 37 34 34 34 31 26 27 29 28 29 28 29 29 29 27 28 28 29 30 29 28 29 30 31 32 30 26 27 28 29 30 33
40 37 35 36 36 35 34 36 35 37 43 46 44 40 37 37 32 30 29 28 29 30 30 33 32 31 31 29 30 31 30 31 32 32 33 33 34 33 32 31 32 32 34 35
43 41 38 39 38 38 36 37 38 43 45 48 47 44 38 35 32 28 28 29 30 31 34 36 35 34 33 32 31 32 32 33 33 34 34 35 35 35 35 34 33 35 37 40
47 43 41 41 40 39 40 41 42 42 45 45 43 46 34 29 32 31 29 32 34 33 34 37 37 36 35 33 32 32 33 34 35 36 36 35 35 36 35 35 37 39 42 45
48 47 44 44 41 41 44 42 41 41 43 46 44 45 33 27 27 28 30 30 33 34 33 37 38 37 37 36 34 33 34 34 35 36 34 34 34 34 35 38 42 43 46 51
51 51 49 46 44 43 42 42 41 44 45 53 41 43 47 29 29 29 32 30 34 35 35 37 36 35 35 34 34 34 34 34 34 33 32 33 34 36 39 42 44 47 52 55
54 53 52 51 48 47 45 41 44 49 51 55 46 47 47 41 33 33 34 37 37 35 32 33 31 34 35 35 34 34 33 33 33 33 34 35 37 40 42 45 48 53 57 60
54 55 52 50 44 41 40 46 50 51 54 55 53 49 42 42 39 34 32 34 34 32 30 31 32 33 32 31 31 32 32 32 33 34 35 38 41 43 45 48 51 55 59 61
52 54 50 46 44 40 44 47 35 42 43 46 45 44 41 42 44 40 31 30 30 29 30 31 33 33 35 35 34 33 33 34 33 34 36 40 43 46 49 51 54 58 60 63
46 49 52 50 50 48 46 45 44 45 48 51 52 46 43 44 42 39 36 31 27 27 30 33 35 36 33 32 33 36 37 37 37 38 39 42 46 48 51 54 58 60 63 66
45 49 52 49 48 45 43 47 46 45 49 49 51 48 47 47 44 39 38 29 24 26 29 32 32 31 32 34 35 37 39 40 40 42 45 49 52 55 58 60 62 63 64 67
50 49 54 55 53 51 50 52 52 49 47 52 55 48 47 43 40 38 39 37 31 27 31 33 31 32 36 37 37 38 38 40 44 49 52 54 55 57 60 63 66 68 68 70
49 57 55 56 57 58 55 50 47 47 49 54 54 47 46 42 41 41 39 41 39 36 34 35 35 35 38 39 39 41 43 46 49 52 55 57 59 60 62 66 68 71 72 73
50 56 56 56 51 51 50 48 45 48 55 54 51 48 47 45 41 40 42 42 41 41 41 41 37 37 40 42 45 46 48 48 51 55 58 61 62 64 65 67 69 72 72 73
53 52 53 48 48 52 52 52 52 59 57 59 51 52 45 45 40 41 44 44 41 41 42 41 41 45 46 48 49 52 53 54 55 57 59 61 64 67 68 68 67 70 72 73
50 52 54 55 52 53 56 57 61 63 61 61 56 54 49 40 43 45 47 49 49 47 46 47 48 49 50 52 53 55 57 57 59 60 59 61 65 67 68 68 69 71 71 73
53 47 50 55 53 52 58 54 53 51 50 52 57 50 48 46 46 44 45 48 46 45 47 48 47 50 52 54 54 54 56 59 58 57 60 65 66 65 68 67 69 69 71 75
59 55 54 52 56 63 55 53 52 53 52 52 53 47 49 51 49 45 45 47 47 47 49 50 53 55 55 57 57 55 56 59 61 59 62 63 65 67 68 68 66 70 75 76
58 64 66 66 65 63 58 55 57 57 54 56 55 51 54 54 53 55 54 52 53 55 58 58 58 58 58 58 59 59 60 60 59 59 60 66 68 70 67 67 71 73 75 78
61 61 62 63 66 69 57 56 58 62 62 59 56 53 56 60 63 56 53 58 59 60 59 59 61 61 59 57 57 57 56 55 60 64 69 72 68 65 68 69 71 74 76 76
58 60 60 61 64 67 65 65 65 69 64 63 59 56 57 59 60 59 59 60 61 61 60 60 59 58 55 52 52 54 57 61 66 69 67 65 66 66 68 71 72 72 73 74
58 58 59 59 58 68 60 62 62 58 58 59 59 59 60 60 59 57 58 57 57 57 56 55 54 53 53 54 56 58 60 63 64 63 66 67 67 68 69 70 71 72 73 74
53 54 55 56 55 52 52 50 49 54 55 58 60 60 60 59 58 58 59 55 52 50 49 50 53 55 55 57 58 60 63 63 66 68 67 66 66 68 69 69 71 71 73 75
54 54 53 52 51 51 51 50 52 52 54 55 56 56 56 55 53 52 52 52 52 52 51 51 53 55 56 56 59 61 64 65 67 65 65 66 67 67 67 69 72 74 75 72
52 48 47 49 50 51 52 51 51 51 52 50 49 47 47 48 48 47 47 46 46 47 49 52 54 57 60 62 63 64 64 65 66 66 66 66 67 67 70 73 74 73 70 72
52 51 47 50 52 54 54 54 53 54 54 53 50 50 48 47 48 48 49 50 51 53 55 58 61 63 64 64 64 66 68 67 66 66 67 68 70 73 74 71 69 69 70 69

GFSCGP_500_spd_048.txt.gz
Wind_Speed
38 37 30 30 32 33 32 31 30 30 33 33 33 34 34 37 35 31 31 30 28 28 29 29 30 30 29 28 27 28 28 29 29 29 30 28 27 28 30 32 34 35 34 33
41 38 35 35 34 35 34 35 32 33 36 40 38 39 40 41 38 35 34 30 28 29 29 31 33 34 33 31 29 30 31 32 32 31 30 30 31 31 32 33 34 35 36 35
43 41 39 38 37 38 36 36 35 38 39 42 44 47 42 35 33 31 31 29 27 27 30 33 35 35 35 34 33 32 32 34 34 33 32 33 34 34 35 36 37 37 38 39
48 44 41 40 41 40 40 37 40 39 42 47 48 54 39 32 29 29 25 28 28 29 32 36 37 37 37 37 35 35 35 34 34 34 34 34 34 35 36 36 36 38 38 39
50 47 45 45 42 42 41 39 40 42 48 51 50 53 45 32 25 22 26 30 29 30 32 34 36 38 38 37 38 38 37 36 34 35 35 35 35 36 35 35 35 35 37 40
52 52 48 46 44 43 43 42 43 47 51 61 51 53 54 38 28 25 26 30 33 35 34 35 37 38 38 38 38 37 36 36 35 36 36 36 36 35 35 34 35 37 41 43
53 52 50 48 46 46 46 45 47 53 57 63 55 55 50 43 34 33 31 32 33 35 37 37 39 39 39 38 38 37 37 36 36 36 36 36 37 35 34 36 38 41 44 46
57 57 51 49 48 45 41 41 47 52 57 56 52 44 33 31 26 27 28 27 30 35 37 36 37 38 38 38 37 36 36 35 35 35 36 37 35 35 37 40 42 43 45 48
62 60 57 55 52 48 52 59 54 54 57 56 48 42 37 37 35 31 26 27 29 32 35 35 36 36 35 35 36 36 36 36 36 37 38 38 36 37 39 41 43 45 48 52
51 57 62 64 62 58 54 47 46 49 54 55 53 49 46 42 40 40 34 31 30 32 31 33 36 38 38 37 37 37 39 40 40 40 40 40 40 40 42 44 47 51 54 57
51 52 55 51 52 50 47 46 48 51 53 54 53 47 48 45 39 37 37 32 26 26 29 33 37 39 40 40 40 39 38 39 41 43 44 44 42 44 46 49 53 56 58 60
47 52 55 54 51 51 50 51 51 52 50 50 51 45 46 46 38 36 37 37 37 32 32 34 36 39 38 37 38 39 41 42 43 43 43 42 45 48 50 54 57 58 60 62
41 47 50 55 58 58 60 58 51 48 48 51 54 47 49 44 43 39 37 39 41 40 38 37 39 41 41 41 41 43 45 47 48 48 47 47 49 53 55 57 59 61 63 65
46 48 49 51 51 53 53 52 49 50 54 55 53 48 45 43 42 40 38 42 43 40 38 39 39 40 45 46 45 46 49 50 50 50 49 51 53 55 59 61 63 64 66 67
49 49 47 47 45 47 49 51 53 57 54 56 48 52 45 43 46 45 44 44 45 46 44 40 41 39 44 47 49 49 50 51 52 54 56 56 57 58 59 61 63 65 68 68
48 48 45 46 45 50 52 51 55 57 56 58 57 55 49 48 48 46 46 48 50 51 50 46 45 46 44 45 48 52 54 55 57 58 58 59 58 58 61 62 62 66 67 69
54 50 50 50 43 48 52 50 54 54 52 51 55 48 47 49 47 47 44 47 52 53 52 49 46 45 46 47 49 50 51 54 56 58 60 60 60 61 62 61 62 67 68 71
61 55 53 54 56 60 50 45 47 51 52 53 52 49 49 48 49 45 47 50 47 48 47 49 49 48 49 50 50 52 54 56 59 61 62 63 60 59 57 64 66 68 68 71
66 57 54 54 60 63 57 51 51 51 51 51 54 52 51 50 55 55 51 48 47 52 52 53 52 53 54 56 56 57 59 61 63 63 62 60 55 61 65 66 67 69 69 71
62 60 58 60 62 63 57 57 57 60 61 49 53 51 52 55 61 54 52 56 56 54 55 54 55 55 57 58 58 59 60 61 59 59 60 53 57 62 65 69 70 73 71 71
67 61 67 64 61 60 54 58 61 66 57 57 58 54 54 59 59 60 60 60 59 59 59 57 56 56 58 57 55 56 58 59 58 57 58 60 61 68 72 76 74 69 74 76
61 60 62 66 65 65 54 59 64 60 59 59 62 61 59 59 60 57 58 58 58 60 61 59 58 56 56 57 57 56 56 56 57 59 61 65 70 73 72 71 73 73 75 77
59 61 56 59 59 61 57 57 59 57 55 54 52 55 60 59 57 56 55 54 54 54 54 55 56 56 56 54 53 55 57 57 58 61 64 67 69 69 70 70 73 75 76 76
63 51 50 53 53 52 54 56 53 49 47 50 52 52 52 53 53 53 53 53 53 53 52 51 50 51 52 53 54 56 56 57 60 62 64 66 68 70 70 72 73 72 72 72
74 75 54 45 40 41 40 42 46 48 48 49 51 51 52 53 54 55 53 49 47 47 48 49 50 49 49 50 51 52 56 59 62 64 65 67 68 70 72 71 70 70 71 73
66 64 73 73 61 53 48 48 50 50 49 49 49 50 51 50 50 50 51 51 50 49 49 48 48 49 51 54 57 59 61 63 65 66 66 69 72 72 71 69 70 72 74 75

GFSCGP_500_spd_054.txt.gz
Wind_Speed
40 40 35 31 35 34 32 31 30 29 31 34 33 29 27 30 23 22 23 26 30 30 32 33 33 31 31 31 32 32 31 30 29 28 28 29 30 29 29 30 29 30 30 29
44 43 36 38 38 37 35 34 33 33 35 39 37 35 31 31 30 26 26 29 33 33 33 35 35 34 33 35 35 34 33 33 32 32 32 32 31 31 32 32 33 34 33 33
49 46 41 42 41 39 38 38 36 38 38 41 42 44 36 32 33 31 29 31 33 33 33 35 38 36 36 35 36 37 36 35 35 34 35 35 35 35 34 35 37 38 37 36
52 48 45 41 41 42 41 40 42 42 42 42 43 56 40 36 35 34 32 35 37 41 40 37 38 37 36 38 38 38 37 36 35 36 36 38 39 39 39 39 39 38 39 40
51 50 46 45 43 43 44 43 43 44 44 45 49 53 47 40 39 35 36 37 39 46 47 43 37 39 37 37 38 37 37 36 36 38 39 40 41 42 42 41 41 42 42 43
55 54 51 48 46 45 45 46 46 46 45 50 54 52 50 45 44 40 38 41 44 45 47 44 41 39 38 38 39 38 38 38 39 40 40 41 42 43 44 43 43 44 44 44
56 54 52 50 50 48 46 46 46 47 50 51 56 58 54 47 50 45 46 43 39 39 36 41 42 42 41 40 41 41 41 41 43 43 43 43 43 44 45 44 44 45 46 46
58 59 55 53 51 50 48 47 48 53 53 52 57 63 59 49 46 48 46 36 33 35 31 29 34 40 42 43 43 43 43 44 45 44 44 44 45 44 43 43 45 46 47 48
59 60 58 54 52 50 52 53 49 49 53 58 63 63 60 54 51 52 50 33 29 32 34 35 36 37 39 41 41 43 44 43 42 44 43 42 42 42 43 45 47 48 49 49
61 63 61 59 57 56 56 55 54 56 58 60 66 67 60 56 57 53 49 45 34 37 36 38 40 41 42 43 44 44 43 41 40 40 41 41 42 43 45 47 48 49 50 51
66 66 70 68 66 64 62 62 63 62 64 65 68 69 64 65 64 63 57 40 33 33 35 36 38 41 44 46 46 44 43 43 43 43 42 43 44 46 48 50 50 51 53 55
52 62 71 70 71 72 70 70 70 73 72 69 69 63 59 64 67 57 48 39 34 33 35 36 39 40 40 44 46 46 43 42 43 45 48 48 47 48 50 51 54 56 57 57
38 44 48 57 71 79 81 76 69 68 68 71 73 64 59 59 58 55 51 50 47 44 43 42 43 43 46 45 44 46 46 46 47 48 50 50 50 51 53 54 56 57 58 59
50 50 44 49 52 56 59 58 56 56 59 63 63 52 49 52 51 49 53 57 57 48 43 45 48 47 43 44 45 45 48 49 49 50 50 51 53 54 56 58 59 60 61 61
58 52 50 49 49 50 53 54 53 56 56 58 53 56 42 49 53 57 57 59 58 45 49 49 51 53 47 45 46 48 49 50 50 50 51 53 55 57 59 61 62 63 64 66
61 60 60 56 49 48 49 47 52 57 57 59 55 56 44 46 49 54 55 54 56 53 56 59 56 52 52 53 52 51 50 49 50 51 52 54 55 56 58 60 62 65 67 67
58 60 62 64 59 64 66 52 50 49 51 55 58 52 48 49 51 51 53 54 56 59 58 56 56 57 57 56 54 51 49 49 48 49 51 53 54 54 57 61 63 64 66 69
62 57 61 61 64 68 68 56 50 53 51 51 51 52 47 49 49 53 55 58 56 55 57 58 59 58 56 56 54 52 49 46 47 47 47 50 52 53 57 60 60 61 63 65
67 63 59 70 76 77 75 66 64 66 56 56 51 46 46 46 53 50 46 48 49 51 56 59 58 56 54 53 54 54 54 53 50 47 48 51 54 56 57 60 61 63 63 70
68 70 73 58 70 69 68 65 66 64 70 53 63 57 50 56 62 53 55 54 55 56 57 57 58 58 58 58 57 57 56 54 53 53 54 56 58 59 60 61 61 61 68 67
68 72 70 62 69 74 72 72 74 73 65 61 66 62 60 56 60 58 60 63 62 63 64 64 64 62 62 61 62 61 60 59 59 59 60 60 60 59 59 60 60 63 67 70
56 63 64 68 65 68 62 58 60 64 63 63 68 66 63 60 59 62 57 57 61 61 62 66 69 68 64 64 64 64 64 62 60 56 55 56 56 58 58 58 61 65 71 72
59 56 54 55 59 56 57 56 55 54 50 48 53 57 57 60 63 69 72 71 66 64 62 62 66 68 67 67 66 65 64 58 56 56 56 57 56 56 59 62 64 65 67 69
64 65 68 61 61 55 55 52 51 53 50 42 40 44 50 54 58 62 65 65 64 66 66 63 60 61 58 59 59 58 56 55 54 54 54 54 54 56 59 61 64 66 68 68
72 68 68 78 76 74 67 59 55 54 58 62 59 57 55 52 54 57 57 59 61 62 62 61 57 56 56 55 56 55 55 54 53 52 53 54 55 57 59 62 64 67 68 71
66 67 72 76 76 67 59 58 62 63 64 65 64 65 63 60 54 50 42 44 48 53 54 54 52 48 46 46 47 47 47 47 49 51 54 56 59 62 63 64 67 70 73 76

GFSCGP_500_spd_057.txt.gz
Wind_Speed
40 40 37 31 36 36 33 30 29 27 29 30 29 25 25 27 21 21 21 20 20 24 27 30 31 30 30 31 33 33 33 32 32 31 31 31 30 30 30 31 30 30 30 31
45 43 38 38 39 38 36 34 32 32 34 37 34 31 28 29 27 25 25 25 26 28 29 32 34 34 33 33 33 35 36 36 35 34 33 33 34 34 33 33 34 33 34 35
49 47 44 42 42 41 38 38 37 38 38 40 37 39 32 29 31 31 29 29 31 32 33 37 39 42 41 37 37 36 38 37 37 35 35 34 35 35 36 38 39 38 38 37
52 50 47 43 42 43 42 41 42 42 43 42 40 50 36 31 31 31 30 34 34 35 36 40 43 48 48 44 42 38 37 38 36 35 35 35 36 37 38 41 42 42 42 41
50 51 49 48 44 44 46 45 45 45 45 45 45 50 44 34 33 32 33 34 36 38 38 44 49 51 52 49 44 42 38 36 35 36 37 37 37 38 40 43 44 44 44 44
53 55 52 50 49 47 47 48 48 47 46 48 48 47 48 41 38 36 35 37 38 38 40 47 50 48 49 45 42 42 40 36 36 37 38 38 39 40 42 43 44 44 45 45
54 54 55 53 52 51 49 49 48 49 50 50 52 53 50 44 46 39 39 40 41 40 41 44 40 40 41 41 39 40 39 38 38 39 41 41 42 44 45 46 46 46 47 47
54 56 55 56 54 52 50 50 51 55 54 53 53 59 54 49 44 46 46 48 47 45 39 41 40 40 37 36 35 38 41 42 43 43 42 42 44 45 45 44 45 45 46 47
58 58 57 55 55 54 55 56 53 54 55 57 59 58 56 53 49 49 51 52 53 53 50 46 41 42 41 39 38 38 38 39 40 41 42 43 45 45 45 44 43 42 44 46
60 60 60 59 59 58 58 58 58 59 59 62 61 59 56 55 57 58 58 56 56 58 55 49 39 42 45 45 44 43 42 42 42 42 43 44 43 43 43 44 43 44 45 47
58 66 66 64 64 62 60 58 59 61 61 62 63 62 58 61 62 61 62 65 63 55 51 34 35 41 45 48 48 48 45 44 44 45 46 43 43 44 44 45 45 46 47 48
46 49 59 69 71 69 65 65 64 66 65 65 64 67 61 62 65 66 66 64 64 64 53 44 38 36 41 48 48 47 47 46 45 46 46 45 46 43 43 45 48 49 50 50
50 53 47 52 61 72 75 72 69 68 69 71 71 68 64 68 70 68 66 66 66 59 53 48 42 42 47 49 47 47 48 49 51 52 50 47 46 46 48 49 49 50 52 52
63 59 55 51 50 52 56 63 66 63 65 74 72 73 72 72 70 64 61 58 58 58 57 51 47 49 50 52 53 49 49 49 49 50 49 49 48 48 48 49 50 52 54 56
59 64 62 54 53 51 50 56 55 58 62 62 68 61 68 58 56 56 57 56 56 55 56 56 55 53 52 52 54 54 52 52 51 51 52 53 55 53 51 50 51 52 54 57
50 57 58 65 58 56 55 52 53 55 57 59 58 59 55 47 49 51 50 50 52 53 55 57 57 54 53 54 54 53 49 49 52 53 55 54 53 52 53 53 53 54 55 56
60 59 58 57 60 66 71 57 54 53 54 55 56 53 48 51 49 49 49 51 53 54 53 54 56 57 55 53 52 50 48 49 49 48 47 47 48 48 49 50 52 53 55 57
52 63 58 66 63 61 63 59 60 61 54 56 51 43 42 43 43 51 50 50 48 50 55 56 56 57 57 56 54 53 51 50 49 50 48 47 48 48 49 50 51 53 55 57
74 67 57 61 60 67 70 56 58 65 61 62 59 58 48 45 54 50 44 47 49 51 51 51 51 49 50 50 50 51 51 51 50 51 52 53 54 54 53 52 54 56 57 60
71 66 71 71 71 64 60 60 56 59 70 56 63 60 56 54 59 50 55 56 55 53 54 55 56 56 54 54 56 56 55 55 55 55 56 56 56 56 57 57 58 60 60 61
70 72 74 74 74 78 70 69 73 75 69 69 66 60 53 58 62 61 61 62 60 60 59 59 59 60 60 57 58 60 63 62 62 62 61 59 59 58 58 59 60 61 61 59
63 65 73 76 67 63 65 67 66 61 59 56 61 57 62 66 71 69 66 65 65 65 62 60 61 63 61 57 56 58 60 63 62 63 64 64 62 63 62 61 61 60 59 60
74 62 63 67 71 47 29 44 60 72 75 73 64 66 68 65 56 57 59 62 66 69 69 68 59 66 68 69 69 67 64 63 62 61 63 65 63 61 60 60 59 57 56 59
75 80 72 69 66 63 55 51 43 45 48 61 65 72 63 52 49 53 52 53 53 53 55 56 56 60 64 64 65 65 65 68 66 62 62 60 57 55 54 53 54 55 57 59
63 63 81 82 72 63 61 66 64 61 63 53 45 46 45 49 54 52 49 48 48 49 53 54 55 58 60 61 61 64 65 64 62 59 57 56 52 49 48 48 49 51 54 57
67 69 64 73 70 75 73 80 79 68 61 52 60 62 60 57 56 59 61 61 61 58 57 59 55 52 50 51 52 58 57 54 51 46 42 41 44 45 47 50 53 57 61 65

GFSCGP_500_spd_060.txt.gz
Wind_Speed
37 37 36 33 36 37 36 34 31 30 32 31 29 24 25 26 19 20 20 20 19 21 26 26 28 28 27 27 28 30 30 31 33 34 33 33 34 35 34 33 32 33 33 33
40 40 38 38 39 39 37 35 33 33 35 36 34 28 28 28 23 24 24 23 25 25 27 30 33 33 33 34 32 34 36 35 35 36 38 35 36 36 36 36 36 38 37 37
42 42 42 42 43 42 39 38 36 38 40 41 37 37 32 28 27 28 26 27 29 30 30 32 36 38 38 39 40 41 42 40 38 36 36 37 37 36 37 38 39 40 41 41
46 45 44 43 43 44 43 40 41 42 43 44 41 46 35 30 32 31 29 31 30 31 32 33 35 39 42 44 46 47 48 43 40 38 36 35 36 35 36 39 40 41 42 44
47 46 45 46 45 46 48 46 46 46 46 47 47 50 43 34 33 31 32 33 34 35 35 34 35 39 43 47 48 46 44 40 39 37 36 36 35 36 38 39 39 40 42 45
50 50 49 48 47 49 51 50 49 50 49 52 50 50 52 41 33 34 33 34 36 37 36 36 36 39 43 46 46 41 41 38 36 37 36 36 37 38 39 40 41 42 44 45
49 50 50 50 50 50 52 52 51 52 54 55 55 55 55 47 40 38 37 36 38 40 40 40 41 39 42 44 44 43 41 37 36 38 38 38 39 40 42 43 44 45 47 47
53 53 52 51 51 50 48 49 52 55 57 58 59 58 54 50 49 43 43 42 43 43 45 46 47 44 45 45 45 45 43 37 33 34 38 42 43 44 44 43 45 47 49 50
56 54 54 52 52 52 55 56 54 56 58 61 63 59 57 53 50 51 48 49 48 48 47 46 48 49 51 45 45 48 47 45 41 40 40 40 40 42 42 44 46 47 47 48
48 54 59 57 57 58 57 58 59 60 62 65 66 64 58 54 53 52 52 55 55 52 48 50 55 55 47 44 41 47 48 48 47 45 43 42 43 44 46 46 45 46 46 47
50 51 55 57 62 60 59 60 61 63 64 65 66 67 59 56 57 58 59 59 59 57 56 54 59 47 51 51 47 45 48 49 48 47 47 45 42 42 45 46 45 44 45 46
51 56 56 56 56 59 65 65 63 67 67 67 64 67 59 58 58 60 61 60 60 62 62 62 61 61 60 53 45 48 47 48 49 50 50 48 47 46 46 45 45 45 46 47
56 57 57 58 58 58 60 61 66 69 68 70 70 67 56 61 61 61 61 62 63 65 63 64 64 66 63 54 48 50 52 50 49 49 49 50 51 49 48 47 47 47 48 48
61 63 60 63 60 59 57 56 56 55 60 68 74 74 65 64 65 64 63 64 64 63 64 66 64 62 59 54 49 53 56 57 53 51 53 53 52 52 53 52 50 51 52 52
69 70 68 69 65 66 64 60 58 57 61 62 59 62 56 59 65 67 70 68 65 60 60 61 62 61 61 61 56 51 55 56 53 51 52 53 55 55 55 55 55 56 56 54
48 70 69 68 66 67 70 68 63 62 62 63 64 61 53 48 49 55 58 60 59 58 58 57 58 59 60 60 58 54 51 52 53 51 50 53 56 55 55 56 57 57 55 53
46 50 58 69 62 60 63 66 67 69 67 60 61 57 46 50 50 49 51 52 56 56 51 51 53 56 57 57 57 55 53 51 51 51 50 49 50 51 52 54 55 54 52 52
63 57 52 56 59 66 65 55 54 59 62 64 63 57 47 48 45 51 53 47 47 45 49 51 53 55 55 56 58 58 56 53 50 48 47 46 47 49 51 51 51 52 53 54
76 75 72 72 70 68 67 66 58 56 52 49 56 61 57 54 52 54 46 50 51 49 48 48 48 50 52 53 54 55 54 52 50 48 48 48 48 49 49 50 52 54 55 55
67 69 76 78 83 77 68 62 68 60 65 48 60 59 55 52 64 54 57 61 60 58 58 54 55 56 55 55 54 55 55 56 57 58 57 56 55 55 56 57 57 58 59 61
69 71 73 75 81 88 74 62 65 74 66 60 58 56 59 57 61 61 61 64 65 61 60 57 57 58 59 61 61 61 61 60 59 57 57 58 55 56 57 58 60 60 62 62
70 71 70 61 61 70 73 75 80 79 74 71 72 71 69 65 69 73 72 68 69 66 59 59 63 63 63 64 65 64 63 64 64 65 65 64 63 63 62 61 61 61 63 64
73 72 73 71 71 67 58 57 60 65 73 61 55 63 62 68 66 63 59 63 62 63 60 63 63 62 58 59 63 65 65 66 66 67 69 70 69 67 66 66 66 63 62 63
67 69 73 72 73 70 56 55 56 59 51 53 58 62 54 53 67 75 71 69 65 70 66 64 64 61 61 60 62 63 60 59 60 62 62 63 64 65 64 65 65 64 61 60
63 63 65 69 71 73 72 67 62 60 57 67 61 49 48 47 43 48 60 58 58 56 54 56 58 60 57 53 54 53 54 55 56 59 62 63 63 62 65 64 61 56 47 44
60 60 61 62 60 66 70 69 78 72 73 74 74 86 78 59 53 52 59 58 49 44 49 51 50 49 54 54 54 57 55 56 55 54 51 53 58 56 48 45 42 44 45 46

GFSCGP_500_spd_063.txt.gz
Wind_Speed
36 35 34 32 34 36 36 36 35 34 33 34 33 29 28 30 24 21 21 19 19 19 24 24 25 26 27 27 28 29 29 29 30 31 32 32 32 34 34 36 36 36 36 35
39 38 35 35 35 37 38 37 36 34 34 38 36 32 30 30 26 26 24 22 23 24 26 29 30 30 31 31 31 33 34 36 36 37 37 36 35 34 35 35 37 38 39 40
43 42 39 37 39 39 39 39 38 37 39 41 40 37 32 33 29 28 26 26 27 27 28 31 32 32 33 32 33 35 38 40 41 42 41 36 36 36 35 35 38 40 41 41
46 46 41 40 40 41 42 43 42 43 43 44 44 45 37 35 33 32 29 29 31 31 32 31 33 32 35 34 35 37 40 43 44 43 39 34 37 36 35 36 37 39 39 40
45 44 44 44 43 43 45 46 46 47 46 48 47 49 42 37 36 33 32 34 35 34 35 35 36 37 35 37 38 39 40 42 45 43 40 35 36 36 36 36 37 38 38 40
47 48 47 47 45 45 47 48 49 50 50 51 48 50 47 44 37 37 36 38 38 38 39 39 39 38 37 38 40 42 43 44 44 46 41 37 38 38 37 38 39 39 40 41
46 49 49 48 48 48 49 49 49 50 54 53 55 55 49 51 44 41 39 41 41 41 43 43 41 42 40 41 42 44 47 48 47 46 44 39 37 38 38 39 40 42 43 44
49 50 50 48 47 46 46 47 50 54 55 56 60 58 50 54 53 46 46 45 46 45 46 48 46 46 47 46 46 45 45 48 50 46 46 42 41 39 38 40 43 45 45 46
50 52 51 49 48 49 52 53 49 54 55 60 61 57 57 55 56 55 50 49 48 49 49 50 50 49 50 48 49 50 49 48 47 46 47 47 43 44 42 44 44 44 46 46
47 50 52 53 54 54 54 55 56 58 60 62 62 60 57 55 59 59 58 56 53 55 54 52 53 51 50 51 53 54 53 52 52 50 49 50 47 45 46 45 43 44 46 48
49 50 51 51 53 53 54 56 58 59 61 63 63 64 55 54 58 60 59 59 61 59 57 55 55 55 53 53 54 57 59 57 57 55 50 51 51 47 45 45 45 46 45 45
57 57 56 54 54 52 53 53 58 64 65 68 65 64 50 54 55 59 59 60 60 62 61 62 60 60 58 58 60 59 62 61 59 56 51 52 51 49 47 47 49 50 49 49
66 67 65 65 65 64 63 58 57 59 60 65 67 64 50 58 59 58 59 60 61 62 64 64 66 63 62 63 62 62 62 67 64 56 52 53 55 53 53 54 54 53 51 50
68 67 67 68 65 66 68 64 62 61 62 64 64 61 50 52 54 55 59 65 66 67 68 68 69 65 68 67 68 68 69 71 59 52 51 51 50 54 54 54 54 53 54 54
68 65 66 73 75 70 71 71 68 66 67 65 66 62 56 48 52 51 54 58 61 66 71 73 73 67 70 73 71 71 67 63 57 52 49 50 50 50 53 54 56 57 56 56
62 66 71 74 75 74 73 73 76 74 71 72 70 70 62 60 53 55 53 55 58 57 59 63 68 71 68 63 65 63 61 58 54 51 47 49 52 52 52 52 53 54 55 56
66 63 63 70 63 68 82 78 78 79 79 76 77 73 66 66 59 55 57 62 63 60 59 61 60 61 63 61 58 57 59 59 56 52 51 49 50 51 53 54 54 54 54 53
65 66 64 68 69 74 75 67 70 77 82 78 72 73 70 66 65 62 60 65 60 56 57 59 60 58 55 57 58 59 60 59 59 57 53 50 48 47 48 48 49 50 50 50
60 63 75 78 74 72 68 58 52 56 65 71 70 65 63 61 62 69 63 65 63 63 61 62 58 51 52 53 53 54 55 54 53 52 52 51 50 50 50 50 51 52 53 54
65 66 70 72 82 87 70 58 58 68 75 51 56 65 68 60 61 54 54 58 62 63 65 65 67 60 58 58 59 60 59 59 59 58 57 56 55 55 55 54 53 53 54 54
69 70 72 73 77 79 75 74 80 84 88 86 76 69 71 75 69 59 51 54 62 63 65 67 70 69 65 66 67 62 64 63 60 61 61 61 62 62 62 61 61 61 61 61
72 73 74 74 75 77 71 69 74 77 74 74 76 80 78 70 68 63 61 62 65 64 70 66 65 67 70 70 70 72 68 65 64 64 65 65 66 67 66 66 67 69 70 69
74 73 73 75 76 75 72 72 71 63 60 55 59 67 76 83 85 81 78 78 77 78 75 76 71 67 74 78 77 72 69 66 62 61 59 60 63 64 67 69 70 68 66 66
70 70 73 73 74 73 73 73 74 72 71 72 67 67 59 58 62 65 68 53 54 55 59 64 71 70 67 63 65 68 68 65 64 66 63 59 58 57 55 55 57 60 60 58
64 68 70 71 69 68 66 69 72 73 73 73 73 72 66 65 62 60 62 71 74 57 48 52 58 70 76 69 65 66 65 61 59 63 62 57 51 49 53 55 59 60 59 60
61 62 63 66 61 63 64 63 64 66 67 69 72 71 71 68 65 63 60 67 53 45 45 45 52 49 56 52 52 56 58 58 56 55 58 55 56 55 55 57 58 61 60 54

GFSCGP_500_spd_066.txt.gz
Wind_Speed
36 34 32 30 31 31 32 31 32 32 31 32 33 32 30 30 26 24 22 23 21 19 22 21 20 20 21 21 23 24 24 27 28 27 29 29 31 31 33 32 33 35 35 35
36 36 35 34 33 32 33 34 32 31 33 33 34 35 30 30 28 27 24 22 22 23 25 26 26 24 24 26 25 25 27 27 30 31 32 33 34 32 31 33 34 37 37 38
38 38 39 37 35 36 35 36 35 35 37 34 36 37 29 31 30 28 24 24 25 26 29 30 29 27 29 28 29 29 30 31 32 33 33 36 36 32 32 36 36 37 38 38
41 39 39 39 38 38 37 39 39 39 39 39 39 42 31 32 31 29 28 28 30 30 31 32 33 32 29 32 32 32 34 34 34 35 37 39 38 38 33 37 38 38 39 39
41 40 42 40 40 41 42 41 42 41 42 42 41 45 34 31 33 31 31 31 35 35 35 35 35 37 34 32 36 35 35 37 37 38 40 42 42 38 38 36 37 38 39 38
45 44 43 42 41 42 43 44 44 44 45 46 44 45 44 35 35 35 34 35 37 39 39 40 40 40 40 37 37 37 38 40 42 43 43 44 44 39 40 35 35 37 39 41
42 46 46 45 44 44 45 44 45 46 48 46 48 47 47 47 42 37 37 36 39 41 43 44 44 44 44 42 42 42 41 43 44 45 47 47 46 43 42 40 37 36 37 42
45 47 46 44 43 42 42 44 46 50 51 50 52 49 44 49 48 47 44 45 44 44 46 47 47 46 47 47 45 45 45 46 46 46 46 47 47 46 45 44 40 42 42 43
45 46 45 43 44 45 46 48 46 50 52 56 57 51 49 49 50 52 51 50 49 49 48 49 50 50 51 51 50 51 50 49 49 48 49 48 50 49 47 47 43 43 45 46
41 43 45 45 47 48 49 48 50 53 55 57 57 54 50 50 50 53 54 54 52 51 52 52 52 53 54 55 53 54 54 53 54 54 54 53 51 51 51 49 48 44 42 46
44 46 46 46 44 45 47 49 53 53 53 55 55 55 50 50 52 53 55 55 54 55 52 51 52 51 51 54 56 56 56 58 59 57 57 58 54 52 55 50 50 50 45 44
52 52 52 50 50 49 48 47 48 53 53 55 56 58 51 50 52 54 55 56 56 56 55 53 54 53 52 54 56 57 59 60 60 60 59 59 59 55 53 49 52 53 55 54
60 61 58 56 56 57 54 51 51 52 54 56 58 50 38 45 48 50 55 58 62 65 65 63 62 60 59 59 61 62 62 63 62 61 61 60 62 56 52 49 50 52 55 57
69 67 65 64 62 65 66 65 65 64 66 65 66 61 45 47 53 52 54 56 58 61 62 66 68 66 67 69 69 70 70 70 69 65 64 63 56 55 53 49 51 53 55 55
62 69 73 73 70 67 67 70 69 67 67 68 68 67 59 55 60 61 60 57 59 62 66 65 65 65 65 66 67 67 66 64 61 58 57 54 56 55 55 50 51 51 49 51
66 65 68 72 70 68 71 72 73 71 74 73 78 80 74 73 70 70 67 65 63 65 65 64 63 65 67 66 63 62 60 60 61 60 57 56 55 56 55 53 50 50 50 50
62 61 62 70 67 67 72 73 68 71 73 76 77 75 74 73 75 73 72 71 71 71 69 71 71 71 70 69 66 63 64 59 58 59 59 58 58 56 54 52 49 48 50 51
58 57 58 64 64 69 71 70 72 75 75 78 79 80 77 79 77 77 75 77 77 77 76 74 74 72 70 69 68 67 64 60 58 55 55 56 56 56 53 50 48 48 49 50
55 58 60 62 63 65 66 66 65 64 66 64 67 69 69 73 76 74 72 71 75 76 75 73 73 71 73 72 68 64 64 62 57 54 53 54 55 56 56 55 53 52 52 51
60 61 64 65 67 71 61 55 57 65 80 72 77 75 72 68 66 61 60 63 65 68 68 67 69 73 75 77 73 66 65 66 64 60 60 60 61 60 61 62 62 59 58 58
65 67 68 68 71 74 59 52 61 69 69 70 77 80 80 79 75 62 57 56 56 59 64 67 68 67 65 64 64 63 66 65 66 69 70 65 65 66 62 65 67 66 66 66
71 71 71 72 74 77 65 61 66 71 72 72 73 73 78 78 83 81 79 77 75 80 80 76 74 69 68 65 67 65 65 67 70 68 69 73 70 71 68 68 70 69 65 65
74 73 71 73 74 73 72 70 71 75 71 70 71 70 73 74 73 73 72 72 72 72 69 76 79 74 72 71 72 77 78 78 78 78 72 70 70 68 66 67 70 63 63 63
71 70 74 74 74 71 70 68 67 69 70 70 70 69 67 64 70 71 67 68 66 65 63 61 71 78 79 73 76 68 75 73 70 75 75 70 67 66 64 62 62 63 61 60
64 66 68 70 69 69 67 65 66 67 66 66 67 70 71 71 71 73 73 71 69 66 60 62 64 62 58 63 69 69 65 63 60 62 66 67 70 61 54 51 50 50 53 52
60 63 67 68 65 66 65 62 62 65 65 64 65 67 68 70 70 71 71 72 72 70 69 70 69 70 69 74 68 60 56 51 49 44 44 44 43 44 45 47 50 51 51 50

GFSCGP_500_spd_069.txt.gz
Wind_Speed
31 31 30 30 30 30 30 29 29 30 29 30 31 29 28 29 27 25 23 23 21 19 23 20 19 18 17 17 18 19 20 21 23 22 23 23 22 23 26 29 29 31 34 36
32 31 32 32 32 31 31 30 30 30 31 30 29 29 26 28 27 26 25 23 22 23 24 25 23 21 21 22 21 23 21 23 24 25 26 25 24 25 29 30 31 32 35 36
36 34 33 34 35 33 33 33 33 32 33 31 29 30 27 27 27 26 25 25 24 26 28 28 27 25 23 24 27 26 25 25 27 29 28 29 28 27 31 31 33 33 33 38
40 38 36 35 34 36 36 36 36 36 35 34 32 33 27 26 27 26 25 27 29 29 29 30 31 30 28 28 31 31 30 29 29 31 31 32 31 31 32 33 33 35 34 36
42 40 39 37 36 37 37 39 39 38 38 38 35 40 25 25 29 27 29 29 29 31 33 34 35 36 34 33 33 35 35 33 33 34 35 36 37 35 35 34 33 33 36 38
46 44 42 42 40 39 39 40 41 42 41 41 38 38 40 28 30 30 31 32 33 35 36 38 40 40 40 39 38 38 38 39 39 38 39 40 41 41 40 39 37 36 36 38
47 47 45 45 44 44 43 43 42 43 45 42 42 41 43 39 32 35 35 36 35 36 39 42 43 44 45 44 44 44 43 42 42 43 43 44 45 45 43 45 41 40 40 38
47 49 48 46 44 42 42 44 44 47 47 45 46 44 41 45 40 37 39 41 41 42 42 43 44 45 47 47 47 48 48 47 48 47 46 47 48 47 45 47 48 46 42 43
46 47 44 44 45 43 44 46 43 45 47 50 49 45 43 45 47 45 43 44 45 45 45 46 48 49 50 50 50 49 50 50 51 51 51 50 50 49 48 49 49 49 46 46
46 46 45 43 43 44 43 43 45 46 49 50 50 48 43 45 43 48 49 47 48 47 47 47 49 49 50 52 54 55 56 55 55 55 54 54 53 52 52 52 51 49 48 50
46 47 47 45 46 43 43 44 45 45 48 50 49 49 44 45 46 48 49 50 49 48 48 50 50 50 50 51 52 54 55 57 59 59 57 57 58 56 54 53 54 51 51 52
43 44 44 41 42 42 42 42 43 45 44 45 47 48 45 45 47 50 51 51 52 55 55 56 57 57 55 53 51 53 53 56 58 59 59 60 60 59 58 55 55 56 59 53
47 47 45 46 47 48 48 47 46 47 48 48 51 37 36 41 42 41 43 48 51 51 53 56 58 57 57 55 53 55 57 59 62 63 64 63 63 63 62 61 61 57 55 55
54 53 53 52 55 58 61 60 57 57 56 55 56 50 40 47 49 50 53 55 54 56 58 60 61 60 59 59 59 60 59 60 60 59 58 58 57 56 54 53 52 53 55 56
60 61 63 66 70 70 68 66 66 65 65 68 63 66 48 57 60 61 62 61 62 62 63 64 65 66 66 62 64 65 62 60 60 60 59 58 56 55 55 55 54 54 53 52
70 69 67 69 66 62 66 67 69 69 71 71 73 75 68 66 68 73 73 72 73 72 71 73 73 74 73 71 62 60 67 66 65 65 64 62 63 62 58 56 55 54 54 54
58 58 59 64 60 58 64 64 65 67 66 63 63 67 62 70 72 74 74 73 76 76 78 80 80 76 76 77 77 71 64 67 69 68 65 63 62 59 57 56 55 53 53 54
52 52 54 58 58 64 67 65 66 65 64 64 66 68 70 73 73 73 74 77 79 80 81 80 79 77 76 77 78 80 79 71 68 69 69 69 66 61 58 58 56 55 54 53
52 52 54 57 59 64 69 65 56 58 62 60 63 64 67 72 74 73 75 78 80 82 79 75 76 77 75 75 73 73 71 68 67 67 67 70 68 64 63 59 59 57 58 58
53 53 56 59 63 65 64 57 57 59 64 62 60 61 62 63 65 63 66 70 73 72 73 74 73 71 71 71 71 71 69 66 64 64 60 57 56 58 62 65 66 64 63 63
59 59 61 61 66 68 58 55 61 66 64 64 64 63 66 66 65 62 63 65 67 73 78 76 75 74 70 67 65 65 65 67 68 69 68 67 66 64 59 60 62 62 59 63
65 66 67 68 70 74 59 62 69 72 71 71 71 69 72 72 71 70 66 66 66 68 69 75 75 78 82 79 76 77 77 77 78 80 77 72 66 66 69 69 69 69 68 67
72 72 70 72 74 73 72 72 74 76 75 73 74 74 75 75 75 75 74 71 70 70 70 72 74 74 71 73 71 68 68 70 74 78 80 80 79 76 77 78 71 68 66 65
69 69 73 72 73 71 71 72 72 72 73 74 73 73 72 72 73 75 75 74 73 73 75 76 76 75 75 74 71 69 67 67 64 64 72 76 70 65 60 62 62 53 56 61
65 67 69 71 68 69 66 64 64 65 66 68 70 71 73 73 72 72 73 72 73 73 73 74 74 73 74 74 74 75 70 64 64 62 62 62 60 61 64 59 61 57 57 60
62 65 67 68 66 69 69 67 68 70 70 69 69 67 66 69 69 68 68 68 67 67 68 69 70 72 73 75 75 75 74 73 73 77 75 71 62 62 56 52 50 45 52 52

GFSCGP_500_spd_072.txt.gz
Wind_Speed
32 31 30 29 31 32 31 30 30 30 30 31 29 27 29 32 29 27 24 23 22 21 23 22 21 20 18 18 17 17 18 20 21 20 19 21 21 21 21 22 22 25 26 27
33 31 31 31 31 30 30 29 29 30 30 30 30 28 29 32 29 27 26 25 25 24 25 26 25 23 22 22 22 22 22 22 22 23 24 23 24 24 24 25 27 27 28 28
34 33 33 32 31 31 31 31 30 32 31 31 30 28 28 30 29 29 27 27 28 28 28 28 27 26 26 26 27 28 26 24 25 26 28 27 26 26 28 30 30 30 30 30
37 36 35 33 33 32 33 34 34 33 34 33 31 30 25 28 29 29 29 29 29 29 28 30 31 31 31 30 31 31 30 29 29 30 31 31 30 30 31 33 34 34 33 33
40 38 36 36 36 35 34 35 35 36 35 35 34 37 27 25 28 29 30 29 30 31 32 33 35 35 35 35 35 34 35 35 35 36 36 36 36 35 36 37 37 38 38 38
45 43 42 41 40 40 38 38 37 37 37 37 37 36 37 30 30 30 30 32 33 33 35 37 37 39 39 40 40 41 41 41 41 42 41 41 41 41 42 42 43 39 42 43
49 47 46 45 44 45 44 44 42 42 42 40 41 40 40 37 34 35 34 35 36 38 39 39 41 43 44 44 45 45 45 46 47 47 46 46 46 46 47 47 46 43 44 46
51 51 49 48 47 46 46 46 46 46 46 45 46 43 42 42 38 37 39 41 41 42 42 43 43 45 45 46 47 49 50 49 50 50 50 50 51 51 49 50 50 49 47 49
52 52 52 50 50 50 50 50 45 47 50 51 49 46 44 45 45 43 43 44 45 45 44 44 45 46 48 50 51 53 54 55 55 55 55 54 53 53 52 52 52 52 51 52
47 47 48 48 50 51 52 50 48 49 51 52 53 50 47 46 44 46 44 44 43 47 49 48 49 48 50 50 51 52 53 54 54 54 55 54 53 54 55 53 53 53 53 54
51 52 53 51 52 49 48 48 46 46 48 51 51 48 48 49 50 50 50 48 47 47 47 48 50 51 50 50 50 50 52 53 54 55 55 54 54 55 55 55 54 56 55 55
51 56 56 54 51 51 49 49 50 50 48 46 49 54 51 51 51 51 52 53 54 52 53 53 54 55 54 53 52 51 52 53 54 55 56 56 56 57 56 57 59 63 62 63
47 49 52 57 56 54 53 51 49 47 46 50 48 53 50 47 47 44 45 47 47 48 49 48 47 47 47 48 49 50 50 49 50 51 52 54 55 56 56 57 59 61 61 61
55 51 52 51 49 48 47 46 45 46 47 47 46 44 45 48 48 46 48 51 53 52 53 55 56 57 58 58 59 60 60 60 59 59 59 60 60 60 59 57 56 56 57 58
55 58 55 55 54 53 51 51 51 51 52 54 52 54 50 53 59 60 59 60 60 61 64 65 65 65 65 65 65 66 66 65 66 69 70 69 68 68 67 66 65 63 62 62
55 53 57 58 57 57 58 57 58 59 62 63 68 65 59 65 67 67 69 70 72 73 73 73 74 75 75 75 76 76 77 76 74 71 71 73 74 74 73 71 69 67 63 60
63 65 63 66 64 63 64 60 63 65 70 68 70 65 67 66 68 70 72 74 76 78 79 79 78 79 79 79 80 81 82 80 80 81 76 72 74 77 77 76 76 71 67 64
63 64 60 64 66 71 63 66 69 69 65 61 63 64 66 67 67 69 71 75 76 78 79 80 81 81 82 83 84 85 85 85 81 75 73 76 74 71 71 74 76 73 71 69
63 63 56 55 58 65 71 67 61 62 63 61 62 62 63 65 66 67 69 73 77 79 80 81 81 82 82 81 81 82 79 79 79 75 68 64 63 64 61 60 62 64 64 64
53 52 53 57 59 64 67 61 59 56 66 63 57 59 61 62 65 64 67 69 71 72 75 77 77 78 78 78 77 77 75 74 75 74 72 69 66 63 59 62 60 61 61 62
53 55 56 57 60 64 63 62 63 65 64 65 64 62 63 64 65 65 67 67 68 70 70 72 73 74 73 74 74 73 73 73 74 78 76 76 76 72 71 69 70 69 70 68
56 58 59 61 64 67 59 64 68 68 68 68 68 68 69 69 68 69 69 71 71 72 73 75 76 75 76 77 76 75 75 75 74 72 70 73 72 74 74 73 72 71 74 74
64 64 64 67 69 68 67 69 73 75 73 73 75 76 77 78 78 78 77 76 77 79 80 82 82 81 81 82 82 81 81 80 80 78 75 74 71 69 67 65 64 63 62 61
59 60 64 65 65 67 70 73 76 79 79 78 79 80 81 81 81 81 81 79 78 77 76 76 76 76 75 76 77 79 79 79 79 78 77 76 77 74 69 64 61 53 46 57
58 61 63 67 65 66 66 67 69 71 74 75 76 76 76 76 73 74 73 74 74 74 73 73 73 72 69 68 67 69 69 70 72 73 74 76 78 78 76 71 67 63 60 63
62 65 68 69 67 68 68 68 70 71 71 71 72 72 73 75 76 76 74 74 74 74 74 73 73 73 72 70 69 70 69 68 67 68 69 71 73 74 73 71 70 74 75 75

GFSCGP_500_spd_075.txt.gz
Wind_Speed
38 37 35 32 34 35 34 31 30 29 29 28 28 27 27 28 27 27 27 26 24 25 26 22 22 23 21 20 21 21 20 22 21 20 20 21 20 20 22 22 22 23 23 24
37 35 35 36 35 35 33 31 29 29 30 31 29 26 28 29 27 28 28 28 29 28 29 28 27 25 24 25 25 24 24 25 24 24 24 23 25 23 25 26 27 28 29 28
37 36 36 35 35 35 33 32 30 31 32 32 30 27 28 29 29 29 30 31 31 31 31 31 29 28 28 29 30 30 29 28 27 28 28 28 28 29 29 30 31 32 34 33
40 39 38 36 35 35 34 32 32 32 32 33 30 29 25 27 29 31 31 31 31 33 34 33 32 31 30 31 32 33 33 32 32 33 32 34 35 33 34 35 36 37 39 39
40 39 37 36 34 35 34 34 34 35 34 32 31 34 28 26 28 30 32 32 32 33 35 35 35 35 34 34 36 37 37 38 38 38 37 38 39 40 40 41 41 43 44 44
44 42 41 39 39 38 37 36 36 35 34 34 33 34 35 33 32 31 32 33 34 34 36 37 37 37 38 39 40 40 41 42 43 44 44 44 44 45 45 45 47 47 48 49
50 48 45 43 42 41 40 39 38 37 37 37 38 36 38 40 37 37 36 36 36 37 39 39 40 41 42 43 43 44 45 46 47 48 49 49 50 51 51 51 51 51 51 52
53 52 50 47 45 44 43 43 43 44 43 42 42 40 42 44 43 40 41 41 40 40 41 43 44 45 45 46 48 48 48 50 51 51 52 53 55 54 54 55 56 56 56 54
54 54 53 50 49 49 49 48 47 48 48 49 47 46 47 47 48 48 43 44 45 46 46 45 46 46 48 48 49 51 52 53 53 55 56 56 57 57 55 54 53 53 54 55
57 56 55 53 53 53 53 51 51 52 52 53 53 52 53 50 50 53 53 48 47 48 49 49 49 48 50 52 52 51 51 51 53 53 54 54 55 54 53 52 51 52 54 56
57 58 58 58 58 56 55 55 55 54 54 55 55 56 57 57 55 53 53 51 49 50 50 51 51 51 51 53 53 52 52 53 53 53 54 53 52 52 52 51 50 51 51 52
55 60 60 57 56 55 55 55 56 56 54 54 54 55 55 56 55 54 52 52 52 49 49 49 50 52 54 54 54 55 56 56 57 57 57 57 57 57 55 53 55 56 58 58
55 58 57 57 57 56 57 57 56 55 55 55 55 58 57 55 52 51 52 54 54 54 51 50 51 51 50 51 53 53 53 52 53 53 53 54 56 57 58 58 59 60 60 62
54 59 62 63 60 59 58 57 55 54 56 56 55 53 54 52 48 50 50 48 49 49 52 53 54 54 53 53 52 53 55 57 59 61 61 62 63 63 64 66 68 69 70 70
58 56 54 53 54 53 51 52 53 57 58 58 56 54 51 49 49 50 52 53 55 58 60 60 61 62 63 63 64 65 66 67 68 70 71 72 74 75 75 76 77 78 79 79
52 53 54 53 56 58 57 55 55 56 57 58 57 53 50 54 55 57 59 61 63 66 68 69 69 69 70 71 73 75 76 77 77 78 79 80 80 79 80 79 79 78 78 77
54 54 56 57 58 59 60 62 61 59 59 58 58 54 57 59 60 63 65 67 71 72 71 72 72 74 76 77 78 79 80 81 81 82 83 83 83 84 84 85 81 80 78 74
62 56 55 60 62 64 60 60 59 59 61 61 61 62 64 66 67 69 74 76 74 73 73 75 76 77 78 79 80 82 82 83 84 84 84 83 82 81 81 81 80 76 76 72
59 56 58 61 61 62 61 67 66 66 64 62 63 65 66 69 73 74 74 74 74 75 76 78 78 79 81 83 84 85 85 84 83 83 82 80 79 78 75 73 72 72 71 69
74 72 61 66 65 68 64 64 67 67 70 64 61 61 62 65 67 67 70 70 71 74 76 78 80 81 83 84 85 85 86 86 85 84 83 80 77 77 76 73 71 70 69 70
58 60 55 52 54 63 65 65 63 60 62 61 60 62 64 65 65 67 71 72 73 74 75 78 79 80 81 82 84 85 84 84 84 84 84 84 84 83 81 78 76 74 72 69
50 50 52 54 54 61 63 60 65 65 65 65 67 67 66 67 67 68 70 72 73 74 74 76 77 78 80 82 84 84 84 85 86 86 86 86 86 86 85 84 82 80 78 76
53 52 54 56 57 55 58 62 64 66 67 67 68 70 71 72 72 73 73 75 77 79 80 82 83 83 83 85 86 86 84 83 80 78 77 76 75 75 75 76 77 77 75 75
57 58 59 59 59 60 61 63 66 66 67 67 68 69 70 70 71 72 73 73 75 76 77 78 78 77 75 75 77 79 81 81 80 79 79 78 76 74 72 71 70 69 68 69
59 59 57 57 53 56 58 60 63 65 67 68 69 71 72 74 74 76 76 77 77 78 78 79 79 79 78 78 78 79 79 78 77 77 76 75 75 75 73 71 68 67 65 65
50 50 53 54 57 60 63 65 68 69 70 72 73 75 77 78 78 78 78 78 77 77 77 78 78 77 76 75 75 76 78 77 76 74 73 72 72 70 69 67 66 65 64 62

GFSCGP_500_spd_078.txt.gz
Wind_Speed
38 38 35 32 34 35 35 33 31 30 28 28 26 24 24 24 21 25 24 25 26 25 29 26 24 23 22 21 21 23 22 25 23 21 20 21 21 22 22 22 23 25 26 26
40 36 36 38 37 36 36 34 32 32 31 29 27 24 26 25 22 25 27 28 28 28 30 30 29 26 26 25 25 26 27 27 27 25 25 23 25 24 26 26 28 30 31 31
35 36 38 38 37 37 36 35 33 33 32 31 29 27 27 27 27 29 28 28 30 30 32 31 31 30 29 30 30 29 31 32 31 30 29 29 29 30 30 32 33 35 36 37
39 37 38 36 37 37 36 36 35 34 34 33 32 29 25 28 30 29 29 29 30 31 33 33 33 33 33 33 33 33 33 35 36 35 33 33 34 34 36 36 38 40 41 42
40 39 37 38 37 38 37 37 37 37 37 35 32 31 26 28 30 30 30 30 30 30 31 32 34 35 35 35 35 36 36 38 39 39 39 39 40 40 41 41 43 45 46 47
42 40 40 39 39 39 38 39 38 39 38 37 34 32 32 31 31 32 32 31 31 31 32 33 35 36 37 37 37 39 40 40 41 42 43 44 45 46 47 47 48 49 50 50
43 41 40 40 39 40 40 39 39 38 38 38 35 34 36 34 33 34 34 34 34 35 36 36 37 37 38 39 40 41 42 43 44 46 47 49 50 51 53 54 55 55 55 54
43 44 43 41 40 40 41 41 41 40 40 39 38 37 39 39 38 36 35 36 37 37 37 39 40 41 42 43 44 45 46 47 48 50 51 53 54 55 57 58 58 58 58 60
53 47 48 46 47 47 46 45 44 42 43 41 42 43 42 42 42 42 41 40 40 41 42 42 43 43 45 46 47 49 50 51 51 52 53 54 56 57 58 59 60 61 61 61
63 55 53 53 53 53 51 49 47 48 47 46 47 46 48 47 47 48 48 48 46 46 46 47 47 47 47 48 49 50 51 54 55 56 55 55 56 57 58 59 59 58 58 57
61 58 60 59 58 54 53 53 52 52 52 52 52 53 53 52 52 52 52 54 54 52 48 48 48 50 51 51 49 49 51 52 53 55 57 57 56 56 57 57 58 58 57 57
56 60 60 61 60 59 58 56 56 57 56 56 55 56 57 57 56 56 56 54 54 52 52 51 50 51 52 52 54 55 57 56 56 57 58 59 59 59 59 57 55 55 55 56
57 61 62 63 63 62 61 60 59 59 59 59 59 58 59 60 60 56 55 55 54 53 52 51 49 49 50 51 53 54 55 57 58 58 59 58 57 56 57 59 62 64 65 66
53 58 62 63 62 60 61 60 59 58 58 57 57 54 53 53 54 54 55 55 54 53 54 54 55 54 53 52 53 54 55 57 58 59 60 61 62 64 66 68 69 71 73 74
55 53 54 56 57 57 56 55 54 55 52 54 52 53 54 55 57 57 57 59 59 58 57 56 56 56 54 55 58 63 65 66 66 67 68 68 70 72 74 76 77 78 79 80
58 59 61 62 63 61 61 60 60 61 62 64 64 61 60 60 62 62 63 62 61 62 61 59 58 58 59 60 64 67 69 70 71 72 73 74 75 76 77 78 79 81 82 83
54 54 55 61 59 58 59 56 55 54 54 55 55 53 56 57 60 62 64 65 65 63 63 63 64 65 67 70 72 74 73 73 73 74 76 77 79 80 82 83 85 86 87 89
56 53 56 55 57 59 60 61 61 60 60 62 61 60 59 59 59 61 64 66 67 66 67 69 71 74 76 76 79 78 78 79 79 80 81 82 84 86 87 87 87 88 89 88
57 56 54 58 60 61 60 60 63 63 60 55 55 58 60 60 61 64 67 69 69 70 71 74 76 78 80 82 83 83 84 85 86 88 89 91 92 93 95 95 94 92 91 89
63 63 63 58 65 66 60 59 62 62 61 57 54 55 59 62 65 67 68 68 69 71 74 76 78 79 81 83 86 88 89 90 92 93 94 95 95 95 95 96 96 95 94 93
64 64 67 67 66 65 64 65 66 65 61 60 59 60 62 63 64 65 66 67 68 69 71 74 76 78 80 83 86 88 91 92 94 95 97 97 96 97 97 96 94 92 89 87
62 61 67 68 69 69 66 65 64 62 63 65 65 63 62 61 62 63 65 67 69 70 71 73 76 78 80 84 87 89 90 92 93 93 93 93 93 91 89 87 85 84 84 84
59 56 54 55 55 56 61 66 69 70 70 65 62 60 59 58 59 62 64 66 68 70 71 73 75 76 78 81 84 86 87 88 88 88 88 88 87 87 88 86 84 83 82 80
52 53 51 53 57 55 57 59 61 61 60 60 60 62 64 64 63 61 62 64 66 69 72 74 76 78 80 82 84 86 87 87 88 88 87 86 84 83 83 82 81 79 76 74
56 54 54 54 53 54 56 58 59 61 63 64 64 63 61 60 61 62 64 67 70 73 76 79 81 83 85 86 87 86 86 85 84 84 84 83 83 82 81 80 80 77 76 74
57 57 57 56 57 61 63 65 65 64 63 61 59 59 60 62 65 67 69 72 74 77 80 82 84 85 85 84 82 82 84 84 84 84 83 82 81 80 78 77 74 73 71 68

GFSCGP_500_spd_084.txt.gz
Wind_Speed
53 53 52 47 44 40 38 37 37 36 33 31 29 28 26 25 25 25 25 25 26 26 24 23 22 21 20 20 20 20 20 23 23 25 24 25 25 25 25 26 27 28 29 29
53 50 46 44 45 42 41 41 39 36 34 33 30 29 28 27 27 26 26 27 27 29 28 26 25 25 24 24 24 24 25 25 26 26 27 27 28 29 30 30 32 33 34 35
49 45 46 46 45 43 42 41 39 37 35 34 32 31 30 28 28 27 27 26 26 28 28 28 27 27 27 28 28 29 29 29 29 30 30 31 31 33 35 36 36 37 38 39
47 46 47 45 44 42 41 40 39 38 38 38 35 35 32 30 30 29 28 28 28 28 28 28 28 28 28 30 31 31 31 32 33 33 34 35 35 36 39 40 40 41 42 43
49 48 47 46 43 41 41 40 40 40 40 39 37 36 34 33 31 30 30 29 29 29 29 29 30 29 29 30 31 32 32 33 34 35 37 37 38 39 41 42 44 45 47 48
47 45 46 45 43 43 42 41 41 41 42 42 38 37 35 34 33 32 31 31 30 29 29 30 31 30 30 31 32 33 34 34 35 37 38 40 41 42 44 45 47 48 50 51
50 48 47 46 46 46 44 42 43 43 44 43 38 38 36 35 34 34 34 32 30 30 30 31 32 32 32 32 33 34 35 37 38 39 40 41 43 44 46 48 49 51 53 55
45 46 45 46 46 43 41 41 41 41 42 40 39 40 39 36 36 35 34 34 33 33 33 33 34 35 35 36 36 37 38 39 41 42 43 45 46 48 49 50 52 53 55 56
43 48 47 45 44 42 41 41 41 40 43 42 42 41 39 37 36 34 34 36 36 34 33 33 33 33 34 36 37 39 40 40 42 44 46 48 50 52 53 54 55 56 58 59
45 47 45 43 41 40 39 40 41 42 43 42 43 40 37 36 34 34 36 37 38 38 38 37 36 36 37 38 39 40 41 42 44 46 48 50 52 53 55 55 56 56 56 58
46 46 48 47 43 40 44 43 41 40 41 39 38 38 35 35 36 37 38 39 39 40 42 42 43 42 41 42 43 44 46 47 49 50 51 52 53 55 57 57 56 56 57 59
46 48 46 45 45 44 44 44 42 42 40 40 40 42 46 42 40 41 42 43 44 45 46 46 45 44 46 47 49 51 53 53 51 50 51 54 55 56 57 58 57 56 54 56
50 55 53 52 52 54 52 47 46 46 46 44 44 44 44 45 45 45 46 48 48 49 48 48 49 49 50 52 53 53 52 50 51 53 54 55 56 57 58 59 60 59 60 60
62 60 60 62 56 54 54 54 54 55 57 53 51 48 48 50 50 50 50 51 52 52 53 53 55 55 54 53 53 52 53 53 54 56 57 57 57 58 60 62 63 65 66 66
58 60 62 62 66 62 58 56 56 57 55 60 60 61 61 60 55 56 57 57 57 58 58 58 58 58 57 56 55 56 58 60 60 59 59 60 61 63 64 65 66 68 69 71
61 61 57 54 54 57 60 60 59 57 55 56 52 52 49 56 59 60 59 58 57 58 58 58 57 57 57 59 61 63 63 62 61 61 62 63 65 66 68 70 72 74 77 79
60 60 61 64 65 66 68 60 56 55 58 56 60 53 55 58 59 59 58 59 59 59 59 59 59 60 62 63 63 61 61 61 63 64 65 67 69 71 73 75 78 81 83 84
65 57 55 58 61 64 62 60 61 62 61 60 60 60 59 58 56 58 59 61 61 61 61 62 62 61 60 61 62 62 65 66 67 69 70 72 73 75 78 80 82 84 87 91
53 52 57 61 64 63 63 62 59 57 57 55 57 59 60 60 62 63 61 59 58 57 57 59 61 62 64 66 66 67 68 70 71 73 74 76 78 79 82 84 87 91 95 98
52 53 53 56 57 59 55 55 55 55 59 58 56 56 57 58 60 58 57 56 57 59 62 63 64 65 67 69 69 71 72 73 74 75 77 81 83 86 88 92 96 100 103 104
57 57 56 57 59 59 57 58 57 56 55 55 54 54 54 54 53 54 58 60 61 62 62 65 67 68 68 71 72 74 75 76 78 81 83 86 87 88 91 95 95 94 94 95
58 58 59 58 57 57 58 61 59 54 54 54 54 52 52 52 52 53 56 58 59 61 64 66 68 68 70 72 74 75 77 79 81 84 84 83 84 84 84 84 85 88 92 93
58 58 55 56 52 50 51 51 55 57 59 60 57 56 56 55 54 55 58 59 60 62 65 66 68 70 72 75 74 74 75 75 76 76 77 78 78 79 81 84 87 89 91 92
63 60 58 55 52 54 55 56 56 55 57 59 59 58 59 60 60 59 60 61 63 63 63 63 65 66 66 67 69 71 71 73 74 75 77 78 79 82 85 88 90 91 93 93
66 66 65 65 62 62 64 62 63 62 60 60 63 64 64 62 62 63 63 62 59 57 58 61 63 65 66 69 71 72 73 75 77 77 79 81 84 86 88 91 93 94 93 92
69 69 69 68 63 63 63 65 72 73 73 73 70 66 63 63 62 61 58 55 56 59 61 62 64 66 69 71 72 72 74 76 77 79 82 85 88 90 92 92 91 91 89 86

GFSCGP_500_spd_087.txt.gz
Wind_Speed
59 59 58 56 52 50 48 44 42 43 39 38 35 35 32 31 28 26 24 23 23 21 21 21 20 19 19 20 19 20 20 21 22 24 25 26 27 28 28 28 30 30 31 31
59 56 54 52 51 49 45 45 46 44 42 40 38 36 36 30 29 28 26 24 25 24 24 24 24 24 24 24 24 24 24 24 24 25 26 28 29 30 31 31 33 35 35 35
54 54 58 52 49 50 48 48 48 47 43 41 38 39 37 33 31 30 28 26 26 26 26 26 26 27 27 27 28 28 29 28 28 29 29 31 32 33 35 36 37 38 39 40
55 56 50 50 51 48 46 49 47 47 44 44 42 40 41 35 33 32 30 28 27 28 27 27 27 28 29 30 31 32 33 33 33 33 33 34 34 35 37 38 40 42 42 44
56 53 52 50 47 48 49 48 47 46 44 45 42 44 44 39 36 32 32 30 29 29 29 30 30 30 30 30 31 32 34 35 36 36 36 36 37 38 39 41 41 43 45 46
53 49 51 52 50 50 49 47 47 47 47 48 45 46 45 40 35 33 33 33 32 31 31 32 32 32 32 32 32 33 34 34 35 36 37 37 38 39 40 42 44 46 47 49
55 53 52 52 51 52 51 50 49 50 51 52 48 45 44 39 36 36 36 34 33 33 33 33 33 33 33 34 34 34 34 35 36 37 38 38 39 41 42 44 45 47 49 50
53 55 54 54 53 52 51 50 51 51 51 48 45 45 46 39 39 38 37 37 36 35 35 35 35 35 35 35 36 36 37 38 39 39 40 40 41 43 45 46 48 49 51 53
49 49 49 51 51 50 51 51 50 49 48 48 48 45 44 42 42 39 37 37 36 36 36 36 36 37 36 36 36 37 38 39 39 40 41 41 43 44 46 48 50 52 53 54
46 48 49 51 51 52 50 46 47 48 47 48 50 49 47 42 38 37 37 36 35 36 36 36 36 36 37 38 39 40 40 39 40 41 43 45 47 49 50 52 53 53 53 55
52 51 51 51 51 49 49 50 49 47 47 48 48 49 43 40 40 39 38 37 37 36 37 37 37 39 39 39 39 39 41 42 43 45 47 49 50 51 49 49 51 54 56 58
49 51 51 49 51 49 47 47 44 46 47 47 46 46 42 41 39 38 36 36 36 37 38 40 41 41 41 42 43 45 47 48 49 51 51 52 51 49 50 52 55 57 59 59
51 49 49 49 50 49 52 49 46 47 49 47 45 45 42 40 40 40 40 39 39 41 42 42 43 44 45 47 48 50 51 53 53 54 53 51 50 52 54 58 59 59 58 58
52 50 53 53 49 48 51 52 49 47 46 43 44 41 42 43 42 42 43 44 45 46 46 47 49 50 51 52 53 53 54 55 56 55 53 53 55 59 62 61 59 58 58 59
54 61 57 57 54 52 50 51 53 52 46 49 45 47 48 51 52 53 54 52 51 54 56 55 56 55 56 56 56 57 58 58 56 54 56 60 63 62 59 58 59 60 61 63
51 52 68 61 58 57 60 60 58 55 54 58 58 59 58 63 62 63 61 63 61 61 60 58 57 59 60 61 62 61 60 58 58 61 64 64 61 58 60 63 63 64 67 68
55 53 51 57 63 66 68 62 61 60 61 61 63 55 57 57 56 54 56 58 59 60 60 60 61 62 63 62 60 58 59 62 64 64 63 61 61 65 65 66 68 70 72 74
57 59 60 58 57 64 66 64 62 62 61 62 64 60 57 55 54 60 60 59 60 61 61 60 60 61 60 60 60 62 63 63 62 63 64 66 67 68 70 72 74 76 77 80
66 63 60 64 67 66 62 58 58 58 56 55 54 57 61 63 63 63 61 61 61 61 61 60 61 62 62 62 63 63 63 63 65 67 69 70 72 73 75 76 78 81 84 86
56 61 71 67 67 67 51 56 57 60 60 53 56 57 56 57 60 56 56 58 60 62 62 62 62 62 61 60 62 64 65 66 68 70 73 75 75 77 78 80 84 86 89 91
54 55 55 59 64 64 58 62 61 64 56 57 55 54 55 57 56 56 55 56 57 57 58 59 58 60 61 63 65 67 68 69 71 74 76 76 77 80 83 86 89 89 91 91
53 54 54 52 54 55 51 52 50 49 48 51 54 54 54 55 54 55 55 56 56 56 57 56 57 59 61 65 67 69 72 74 74 74 76 79 82 83 84 85 85 84 85 87
59 57 57 55 53 51 51 49 52 54 56 55 56 57 57 56 55 54 54 54 55 55 55 57 59 62 65 67 68 70 72 74 75 75 76 78 79 77 78 79 80 82 85 88
61 61 61 58 56 54 54 55 56 57 57 57 57 56 56 56 56 55 54 54 54 55 56 59 62 64 66 68 69 70 71 71 72 72 72 72 72 74 77 79 83 85 88 90
65 64 61 60 58 57 56 56 57 57 57 55 55 56 57 58 58 58 58 59 60 61 61 61 63 64 66 66 66 66 66 66 67 69 71 73 74 77 79 81 83 87 90 92
67 66 63 61 61 61 59 58 58 59 59 60 62 62 62 61 62 63 65 64 65 65 63 61 61 60 60 62 62 62 64 67 70 71 73 75 76 78 80 82 83 86 89 90